M I D A S
Marine Information and Data Acquisition System
Tripno 905 of the Zeeleeuw from 2005-05-26 06:19:52 to 2005-05-26 13:04:20
Back to CruiseResearch ActivitiesStationsMapUnderway DataData graphs

EquipmentUnitsComment
TimeDGPSUTC
LatitudeDGPSDM.mWGS84
LongitudeDGPSDM.mWGS84
TemperatureSBE03/SBE38deg celciusITS90
ConductivitySBE21S/mITS90
SalinitySBE21 Practical Salinity Units
ChlorophylAChelsea fluorimeterg/lCalibrated in Aceton
Missing or incorrect values are displayed as -999
Sea surface data collected by the RV Zeeleeuw from 2005-05-26 06:20:44 to 2005-05-26 13:17:14
                                                                                    Next 1000 lines
Time Latitude Longitude Temperature Conductivity Salinity ChlorophylA
2005-05-26 06:20:54 51°13.598 2°56.103 20.3846 0.0774 0.394315 -0.882377
2005-05-26 06:20:58 51°13.599 2°56.1 20.4221 0.077504 0.394862 -0.848668
2005-05-26 06:21:04 51°13.601 2°56.096 20.475 0.0774 0.394327 -0.848668
2005-05-26 06:21:08 51°13.602 2°56.091 20.4725 0.0774 0.394327 -0.848668
2005-05-26 06:21:14 51°13.603 2°56.086 20.4835 0.077504 0.394868 -0.848668
2005-05-26 06:21:20 51°13.605 2°56.079 20.4747 0.0774 0.394321 -0.882377
2005-05-26 06:21:24 51°13.607 2°56.073 20.5149 0.0774 0.394321 -0.848668
2005-05-26 06:21:29 51°13.609 2°56.067 20.4684 0.0774 0.394327 -0.882377
2005-05-26 06:21:34 51°13.611 2°56.061 20.4745 0.077504 0.394868 -0.882377
2005-05-26 06:21:39 51°13.613 2°56.054 20.4525 0.077504 0.394868 -0.882377
2005-05-26 06:21:44 51°13.615 2°56.046 20.463 0.0774 0.394321 -0.848668
2005-05-26 06:21:49 51°13.617 2°56.04 20.4679 0.0774 0.394332 -0.882377
2005-05-26 06:21:54 51°13.619 2°56.032 20.4935 0.077504 0.394879 -0.848668
2005-05-26 06:21:59 51°13.622 2°56.023 20.5869 0.0774 0.394338 -0.882377
2005-05-26 06:22:04 51°13.624 2°56.015 20.5849 0.0774 0.394332 -0.848668
2005-05-26 06:22:09 51°13.625 2°56.008 20.6129 0.0774 0.394332 -0.848668
2005-05-26 06:22:14 51°13.627 2°56.002 20.5959 0.0774 0.394338 -0.848668
2005-05-26 06:22:19 51°13.628 2°55.997 20.6179 0.0774 0.394332 -0.848668
2005-05-26 06:22:24 51°13.629 2°55.994 20.6096 0.0774 0.394332 -0.882377
2005-05-26 06:22:30 51°13.63 2°55.992 20.4422 0.077504 0.394873 -0.848668
2005-05-26 06:22:34 51°13.63 2°55.991 20.3372 0.077504 0.394873 -0.848668
2005-05-26 06:22:39 51°13.631 2°55.99 20.3083 0.077504 0.394873 -0.848668
2005-05-26 06:22:44 51°13.632 2°55.987 20.2056 0.0774 0.394327 -0.882377
2005-05-26 06:22:49 51°13.633 2°55.984 20.4137 0.077504 0.394873 -0.848668
2005-05-26 06:22:54 51°13.634 2°55.98 20.3557 0.0774 0.394338 -0.848668
2005-05-26 06:22:59 51°13.636 2°55.974 20.4964 0.077504 0.394885 -0.882377
2005-05-26 06:23:04 51°13.638 2°55.969 20.4583 0.077504 0.394891 -0.848668
2005-05-26 06:23:09 51°13.639 2°55.963 20.5156 0.077504 0.394891 -0.848668
2005-05-26 06:23:14 51°13.641 2°55.956 20.5038 0.0774 0.394344 -0.848668
2005-05-26 06:23:20 51°13.643 2°55.948 20.5065 0.077504 0.394891 -0.814958
2005-05-26 06:23:24 51°13.645 2°55.942 20.5 0.0774 0.39435 -0.882377
2005-05-26 06:23:29 51°13.647 2°55.934 20.502 0.077504 0.394891 -0.814958
2005-05-26 06:23:34 51°13.649 2°55.927 20.5314 0.077504 0.394891 -0.848668
2005-05-26 06:23:40 51°13.653 2°55.917 20.5744 0.077504 0.394891 -0.848668
2005-05-26 06:23:44 51°13.655 2°55.909 20.5743 0.077504 0.394897 -0.848668
2005-05-26 06:23:49 51°13.658 2°55.9 20.589 0.0774 0.394355 -0.882377
2005-05-26 06:23:54 51°13.66 2°55.891 20.5793 0.077504 0.394902 -0.848668
2005-05-26 06:23:59 51°13.663 2°55.88 20.5608 0.077504 0.394908 -0.882377
2005-05-26 06:24:04 51°13.666 2°55.871 20.551 0.077504 0.394914 -0.848668
2005-05-26 06:24:09 51°13.669 2°55.86 20.5522 0.077504 0.394914 -0.848668
2005-05-26 06:24:14 51°13.672 2°55.851 20.5534 0.0774 0.394361 -0.848668
2005-05-26 06:24:19 51°13.676 2°55.84 20.5443 0.077504 0.394902 -0.848668
2005-05-26 06:24:24 51°13.68 2°55.83 20.5259 0.0774 0.394361 -0.848668
2005-05-26 06:24:29 51°13.683 2°55.82 20.5222 0.0774 0.394355 -0.848668
2005-05-26 06:24:34 51°13.687 2°55.81 20.5249 0.0774 0.394361 -0.848668
2005-05-26 06:24:39 51°13.692 2°55.799 20.5393 0.0774 0.394361 -0.848668
2005-05-26 06:24:44 51°13.696 2°55.788 20.5426 0.0774 0.394361 -0.848668
2005-05-26 06:24:49 51°13.701 2°55.779 20.5479 0.0774 0.394361 -0.848668
2005-05-26 06:24:54 51°13.706 2°55.769 20.5452 0.0774 0.394367 -0.848668
2005-05-26 06:24:59 51°13.711 2°55.758 20.5346 0.0774 0.394367 -0.848668
2005-05-26 06:25:04 51°13.716 2°55.749 20.5427 0.077504 0.39492 -0.882377
2005-05-26 06:25:09 51°13.722 2°55.74 20.5327 0.077504 0.39492 -0.882377
2005-05-26 06:25:14 51°13.727 2°55.731 20.5313 0.077504 0.39492 -0.848668
2005-05-26 06:25:19 51°13.734 2°55.721 20.5463 0.0774 0.394373 -0.814958
2005-05-26 06:25:24 51°13.74 2°55.712 20.5476 0.0774 0.394379 -0.848668
2005-05-26 06:25:29 51°13.746 2°55.705 20.5463 0.0774 0.394379 -0.848668
2005-05-26 06:25:34 51°13.752 2°55.696 20.5438 0.0774 0.394379 -0.848668
2005-05-26 06:25:39 51°13.76 2°55.688 20.5454 0.0774 0.394379 -0.848668
2005-05-26 06:25:44 51°13.768 2°55.68 20.5897 0.0774 0.394384 -0.814958
2005-05-26 06:25:49 51°13.775 2°55.673 20.568 0.077504 0.394931 -0.848668
2005-05-26 06:25:54 51°13.782 2°55.667 20.5883 0.0774 0.394384 -0.882377
2005-05-26 06:26:00 51°13.791 2°55.66 20.5407 0.0774 0.39439 -0.848668
2005-05-26 06:26:04 51°13.799 2°55.656 20.5643 0.0774 0.394384 -0.814958
2005-05-26 06:26:09 51°13.807 2°55.651 20.5544 0.0774 0.394384 -0.814958
2005-05-26 06:26:14 51°13.814 2°55.647 20.5551 0.0774 0.394384 -0.848668
2005-05-26 06:26:19 51°13.823 2°55.644 20.5635 0.0774 0.39439 -0.848668
2005-05-26 06:26:24 51°13.832 2°55.641 20.5705 0.0774 0.39439 -0.848668
2005-05-26 06:26:29 51°13.84 2°55.639 20.5771 0.0774 0.394396 -0.848668
2005-05-26 06:26:34 51°13.848 2°55.638 20.5897 0.0774 0.394396 -0.848668
2005-05-26 06:26:39 51°13.858 2°55.637 20.5927 0.0774 0.394396 -0.848668
2005-05-26 06:26:44 51°13.866 2°55.637 20.6165 0.0774 0.394402 -0.848668
2005-05-26 06:26:49 51°13.874 2°55.637 20.6389 0.0774 0.394407 -0.848668
2005-05-26 06:26:54 51°13.881 2°55.639 20.6392 0.0774 0.394402 -0.882377
2005-05-26 06:26:59 51°13.89 2°55.641 20.5843 0.0774 0.394402 -0.848668
2005-05-26 06:27:04 51°13.897 2°55.643 20.5883 0.0774 0.394396 -0.882377
2005-05-26 06:27:10 51°13.905 2°55.646 20.5987 0.0774 0.394396 -0.882377
2005-05-26 06:27:14 51°13.91 2°55.648 20.6014 0.0774 0.394402 -0.882377
2005-05-26 06:27:19 51°13.916 2°55.651 20.6115 0.0774 0.394407 -0.848668
2005-05-26 06:27:24 51°13.922 2°55.654 20.6024 0.0774 0.394402 -0.848668
2005-05-26 06:27:28 51°13.926 2°55.657 20.6283 0.0774 0.394407 -0.848668
2005-05-26 06:27:34 51°13.93 2°55.659 20.6192 0.0774 0.394396 -0.882377
2005-05-26 06:27:39 51°13.932 2°55.66 20.6453 0.0774 0.394396 -0.882377
2005-05-26 06:27:43 51°13.934 2°55.661 20.6441 0.0774 0.394407 -0.848668
2005-05-26 06:27:48 51°13.935 2°55.66 20.6316 0.0774 0.394396 -0.848668
2005-05-26 06:27:54 51°13.934 2°55.657 20.6354 0.0774 0.394396 -0.848668
2005-05-26 06:27:59 51°13.933 2°55.653 20.2866 0.0774 0.394402 -0.848668
2005-05-26 06:28:04 51°13.933 2°55.647 20.1335 0.0774 0.394402 -0.848668
2005-05-26 06:28:08 51°13.932 2°55.64 20.4572 0.0774 0.394402 -0.848668
2005-05-26 06:28:14 51°13.933 2°55.631 20.0887 0.0774 0.394402 -0.848668
2005-05-26 06:28:18 51°13.934 2°55.622 20.3227 0.0774 0.394419 -0.848668
2005-05-26 06:28:24 51°13.936 2°55.611 20.3103 0.0774 0.394442 -0.848668
2005-05-26 06:28:29 51°13.94 2°55.601 20.2443 0.0774 0.394448 -0.848668
2005-05-26 06:28:34 51°13.944 2°55.592 20.3253 0.0774 0.394459 -0.848668
2005-05-26 06:28:39 51°13.95 2°55.582 20.4003 0.0774 0.394459 -0.848668
2005-05-26 06:28:44 51°13.955 2°55.574 20.3936 0.0774 0.394459 -0.848668
2005-05-26 06:28:49 51°13.961 2°55.565 20.4095 0.0774 0.394465 -0.814958
2005-05-26 06:28:54 51°13.967 2°55.557 20.4161 0.0774 0.394459 -0.848668
2005-05-26 06:28:58 51°13.973 2°55.551 20.4172 0.0774 0.394448 -0.848668
2005-05-26 06:29:04 51°13.981 2°55.54 20.413 0.077504 0.394989 -0.848668
2005-05-26 06:29:09 51°13.989 2°55.532 20.415 0.077504 0.394989 -0.848668
2005-05-26 06:29:14 51°13.997 2°55.524 20.413 0.0774 0.394442 -0.882377
2005-05-26 06:29:19 51°14.005 2°55.517 20.3995 0.0774 0.394442 -0.848668
2005-05-26 06:29:23 51°14.012 2°55.51 20.4105 0.0774 0.394442 -0.848668
2005-05-26 06:29:28 51°14.021 2°55.503 20.4261 0.0774 0.394448 -0.882377
2005-05-26 06:29:34 51°14.031 2°55.495 20.4548 0.0774 0.394442 -0.848668
2005-05-26 06:29:39 51°14.04 2°55.487 20.4428 0.0774 0.394442 -0.848668
2005-05-26 06:29:44 51°14.048 2°55.48 20.4553 0.0774 0.394436 -0.848668
2005-05-26 06:29:49 51°14.058 2°55.473 20.4512 0.0774 0.394436 -0.848668
2005-05-26 06:29:54 51°14.067 2°55.465 20.4447 0.0774 0.39443 -0.848668
2005-05-26 06:29:59 51°14.077 2°55.458 20.4539 0.0774 0.394419 -0.848668
2005-05-26 06:30:04 51°14.087 2°55.45 20.4552 0.0774 0.394419 -0.848668
2005-05-26 06:30:09 51°14.098 2°55.443 20.4551 0.0774 0.394419 -0.848668
2005-05-26 06:30:14 51°14.108 2°55.434 20.455 0.0774 0.394413 -0.848668
2005-05-26 06:30:18 51°14.117 2°55.428 20.4558 0.0774 0.394425 -0.814958
2005-05-26 06:30:24 51°14.13 2°55.417 20.4532 0.0774 0.394425 -0.848668
2005-05-26 06:30:29 51°14.141 2°55.408 20.4525 0.0774 0.394425 -0.882377
2005-05-26 06:30:34 51°14.152 2°55.399 20.4466 0.0774 0.394436 -0.848668
2005-05-26 06:30:38 51°14.161 2°55.391 20.4355 0.0774 0.394436 -0.848668
2005-05-26 06:30:44 51°14.174 2°55.38 20.4407 0.0774 0.39443 -0.882377
2005-05-26 06:30:48 51°14.184 2°55.371 20.4562 0.0774 0.394436 -0.848668
2005-05-26 06:30:53 51°14.194 2°55.362 20.4652 0.0774 0.394442 -0.848668
2005-05-26 06:30:59 51°14.207 2°55.349 20.4978 0.0774 0.394448 -0.848668
2005-05-26 06:31:04 51°14.219 2°55.337 20.4967 0.0774 0.394453 -0.848668
2005-05-26 06:31:09 51°14.229 2°55.326 20.5048 0.0774 0.394453 -0.848668
2005-05-26 06:31:13 51°14.239 2°55.316 20.4734 0.0774 0.394453 -0.848668
2005-05-26 06:31:19 51°14.25 2°55.302 20.4646 0.0774 0.394453 -0.882377
2005-05-26 06:31:24 51°14.261 2°55.29 20.4916 0.0774 0.394448 -0.848668
2005-05-26 06:31:29 51°14.271 2°55.276 20.5064 0.0774 0.394448 -0.848668
2005-05-26 06:31:34 51°14.281 2°55.262 20.5146 0.0774 0.394442 -0.848668
2005-05-26 06:31:38 51°14.289 2°55.251 20.506 0.0774 0.394442 -0.848668
2005-05-26 06:31:44 51°14.3 2°55.233 20.5128 0.0774 0.394448 -0.848668
2005-05-26 06:31:48 51°14.308 2°55.219 20.5446 0.0774 0.394448 -0.848668
2005-05-26 06:31:54 51°14.318 2°55.201 20.5149 0.0774 0.394448 -0.848668
2005-05-26 06:31:59 51°14.327 2°55.182 20.4232 0.0774 0.394453 -0.848668
2005-05-26 06:32:04 51°14.336 2°55.166 20.3739 0.0774 0.394453 -0.848668
2005-05-26 06:32:08 51°14.344 2°55.15 20.4297 0.0774 0.394453 -0.848668
2005-05-26 06:32:14 51°14.354 2°55.13 20.4982 0.0774 0.394442 -0.848668
2005-05-26 06:32:19 51°14.363 2°55.11 20.4978 0.0774 0.394448 -0.848668
2005-05-26 06:32:24 51°14.372 2°55.091 20.4124 0.0774 0.394448 -0.848668
2005-05-26 06:32:28 51°14.38 2°55.072 20.3865 0.0774 0.394448 -0.814958
2005-05-26 06:32:34 51°14.39 2°55.049 20.3608 0.0774 0.394448 -0.882377
2005-05-26 06:32:38 51°14.397 2°55.032 20.3176 0.0774 0.394448 -0.882377
2005-05-26 06:32:44 51°14.407 2°55.007 20.3335 0.0774 0.394453 -0.814958
2005-05-26 06:32:49 51°14.416 2°54.985 20.2974 0.0774 0.394448 -0.882377
2005-05-26 06:32:54 51°14.426 2°54.964 20.3357 0.0774 0.394453 -0.882377
2005-05-26 06:32:59 51°14.436 2°54.943 20.3407 0.0774 0.394459 -0.848668
2005-05-26 06:33:04 51°14.445 2°54.923 20.1948 0.0774 0.394459 -0.848668
2005-05-26 06:33:09 51°14.456 2°54.902 20.3417 0.0774 0.394459 -0.848668
2005-05-26 06:33:14 51°14.466 2°54.882 20.3586 0.0774 0.394453 -0.848668
2005-05-26 06:33:19 51°14.477 2°54.863 20.3093 0.0774 0.394453 -0.882377
2005-05-26 06:33:24 51°14.488 2°54.843 20.3029 0.0774 0.394471 -0.814958
2005-05-26 06:33:28 51°14.498 2°54.826 20.3157 0.0774 0.394465 -0.882377
2005-05-26 06:33:34 51°14.511 2°54.806 20.313 0.0774 0.394465 -0.848668
2005-05-26 06:33:39 51°14.524 2°54.787 20.363 0.0774 0.394465 -0.848668
2005-05-26 06:33:44 51°14.537 2°54.769 20.3593 0.0774 0.394471 -0.882377
2005-05-26 06:33:49 51°14.55 2°54.75 20.4185 0.0774 0.394471 -0.848668
2005-05-26 06:33:54 51°14.564 2°54.732 20.3745 0.0774 0.394477 -0.848668
2005-05-26 06:33:59 51°14.578 2°54.714 20.4153 0.0774 0.394471 -0.848668
2005-05-26 06:34:04 51°14.593 2°54.696 20.4256 0.0774 0.394477 -0.882377
2005-05-26 06:34:08 51°14.606 2°54.679 20.3795 0.0774 0.394477 -0.882377
2005-05-26 06:34:14 51°14.622 2°54.659 20.42 0.0774 0.394477 -0.848668
2005-05-26 06:34:19 51°14.636 2°54.641 20.3954 0.0774 0.394477 -0.814958
2005-05-26 06:34:23 51°14.649 2°54.624 20.3534 0.0774 0.394482 -0.848668
2005-05-26 06:34:28 51°14.663 2°54.604 20.4126 0.0774 0.394477 -0.848668
2005-05-26 06:34:34 51°14.679 2°54.583 20.3506 0.0774 0.394477 -0.848668
2005-05-26 06:34:39 51°14.695 2°54.562 20.3635 0.0774 0.394477 -0.848668
2005-05-26 06:34:44 51°14.708 2°54.544 20.3528 0.0774 0.394482 -0.848668
2005-05-26 06:34:49 51°14.723 2°54.524 20.3602 0.0774 0.394477 -0.848668
2005-05-26 06:34:54 51°14.737 2°54.504 20.3443 0.0774 0.394471 -0.848668
2005-05-26 06:34:59 51°14.752 2°54.484 20.369 0.0774 0.394471 -0.848668
2005-05-26 06:35:04 51°14.766 2°54.465 20.26 0.0774 0.394471 -0.848668
2005-05-26 06:35:08 51°14.78 2°54.448 20.3351 0.0774 0.394471 -0.848668
2005-05-26 06:35:14 51°14.796 2°54.427 20.2882 0.0774 0.394477 -0.848668
2005-05-26 06:35:19 51°14.812 2°54.409 20.2871 0.0774 0.394477 -0.848668
2005-05-26 06:35:24 51°14.829 2°54.389 20.2664 0.0774 0.394471 -0.848668
2005-05-26 06:35:28 51°14.841 2°54.375 20.3445 0.0774 0.394482 -0.882377
2005-05-26 06:35:34 51°14.859 2°54.356 20.3006 0.0774 0.394477 -0.848668
2005-05-26 06:35:39 51°14.874 2°54.339 20.3192 0.0774 0.394477 -0.848668
2005-05-26 06:35:44 51°14.89 2°54.323 20.2729 0.0774 0.394482 -0.848668
2005-05-26 06:35:49 51°14.905 2°54.307 20.2699 0.0774 0.394477 -0.814958
2005-05-26 06:35:54 51°14.921 2°54.291 20.3791 0.0774 0.394477 -0.848668
2005-05-26 06:35:59 51°14.936 2°54.275 20.3607 0.0774 0.394482 -0.848668
2005-05-26 06:36:04 51°14.952 2°54.259 20.2851 0.0774 0.394482 -0.848668
2005-05-26 06:36:09 51°14.967 2°54.244 20.3224 0.0774 0.394482 -0.848668
2005-05-26 06:36:14 51°14.983 2°54.228 20.3035 0.0774 0.394482 -0.848668
2005-05-26 06:36:19 51°14.998 2°54.212 20.2438 0.0774 0.394482 -0.848668
2005-05-26 06:36:24 51°15.013 2°54.196 20.2592 0.0774 0.394482 -0.814958
2005-05-26 06:36:29 51°15.028 2°54.18 20.2729 0.0774 0.394482 -0.848668
2005-05-26 06:36:34 51°15.044 2°54.165 20.2132 0.0774 0.394482 -0.848668
2005-05-26 06:36:39 51°15.059 2°54.149 20.2195 0.0774 0.394482 -0.848668
2005-05-26 06:36:44 51°15.075 2°54.134 20.3486 0.0774 0.394482 -0.848668
2005-05-26 06:36:48 51°15.089 2°54.121 20.302 0.0774 0.394471 -0.848668
2005-05-26 06:36:54 51°15.106 2°54.103 20.3743 0.0774 0.394488 -0.814958
2005-05-26 06:36:59 51°15.121 2°54.086 20.3541 0.0774 0.394488 -0.882377
2005-05-26 06:37:04 51°15.136 2°54.068 20.3342 0.0774 0.394494 -0.848668
2005-05-26 06:37:09 51°15.15 2°54.05 20.3432 0.0774 0.394494 -0.848668
2005-05-26 06:37:14 51°15.165 2°54.031 20.2067 0.0774 0.394505 -0.848668
2005-05-26 06:37:18 51°15.177 2°54.016 20.1921 0.0774 0.3945 -0.848668
2005-05-26 06:37:24 51°15.194 2°53.993 20.1328 0.0774 0.394494 -0.848668
2005-05-26 06:37:28 51°15.208 2°53.978 20.119 0.0774 0.394488 -0.848668
2005-05-26 06:37:34 51°15.225 2°53.959 20.1141 0.0774 0.394482 -0.882377
2005-05-26 06:37:39 51°15.241 2°53.943 20.1149 0.0774 0.394482 -0.882377
2005-05-26 06:37:44 51°15.258 2°53.929 20.2276 0.0774 0.394477 -0.848668
2005-05-26 06:37:49 51°15.275 2°53.916 20.2448 0.0774 0.394482 -0.848668
2005-05-26 06:37:54 51°15.292 2°53.903 20.3026 0.0774 0.394488 -0.848668
2005-05-26 06:37:59 51°15.309 2°53.89 20.3265 0.0774 0.3945 -0.882377
2005-05-26 06:38:04 51°15.327 2°53.878 20.3427 0.0774 0.394505 -0.882377
2005-05-26 06:38:08 51°15.342 2°53.867 20.3626 0.0774 0.394505 -0.882377
2005-05-26 06:38:14 51°15.361 2°53.852 20.3524 0.0774 0.394511 -0.848668
2005-05-26 06:38:19 51°15.378 2°53.838 20.3612 0.0774 0.394517 -0.848668
2005-05-26 06:38:23 51°15.393 2°53.825 20.2928 0.0774 0.394523 -0.848668
2005-05-26 06:38:29 51°15.412 2°53.807 20.3182 0.0774 0.394523 -0.882377
2005-05-26 06:38:34 51°15.429 2°53.791 20.2979 0.0774 0.394517 -0.848668
2005-05-26 06:38:39 51°15.445 2°53.775 20.3178 0.0774 0.394517 -0.848668
2005-05-26 06:38:44 51°15.462 2°53.758 20.2679 0.0774 0.394511 -0.848668
2005-05-26 06:38:48 51°15.477 2°53.744 20.297 0.0774 0.394517 -0.848668
2005-05-26 06:38:53 51°15.494 2°53.728 20.2408 0.0774 0.394511 -0.848668
2005-05-26 06:38:59 51°15.512 2°53.71 20.271 0.0774 0.394511 -0.848668
2005-05-26 06:39:04 51°15.529 2°53.695 20.3109 0.0774 0.394517 -0.882377
2005-05-26 06:39:09 51°15.546 2°53.679 20.2804 0.0774 0.394517 -0.882377
2005-05-26 06:39:14 51°15.564 2°53.664 20.3265 0.0774 0.394517 -0.848668
2005-05-26 06:39:18 51°15.577 2°53.652 20.3287 0.0774 0.394528 -0.882377
2005-05-26 06:39:24 51°15.597 2°53.633 20.3232 0.0774 0.394528 -0.848668
2005-05-26 06:39:29 51°15.614 2°53.617 20.3466 0.0774 0.394534 -0.848668
2005-05-26 06:39:34 51°15.631 2°53.601 20.3033 0.0774 0.394534 -0.882377
2005-05-26 06:39:38 51°15.645 2°53.587 20.305 0.0774 0.394534 -0.882377
2005-05-26 06:39:44 51°15.664 2°53.567 20.3177 0.0774 0.394534 -0.848668
2005-05-26 06:39:48 51°15.678 2°53.552 20.2989 0.0774 0.394534 -0.882377
2005-05-26 06:39:54 51°15.697 2°53.534 20.2773 0.0774 0.394534 -0.814958
2005-05-26 06:39:59 51°15.713 2°53.518 20.2927 0.0774 0.394528 -0.848668
2005-05-26 06:40:04 51°15.73 2°53.501 20.2955 0.0774 0.394534 -0.848668
2005-05-26 06:40:08 51°15.744 2°53.487 20.3136 0.0774 0.394534 -0.848668
2005-05-26 06:40:13 51°15.761 2°53.471 20.3208 0.0774 0.394528 -0.848668
2005-05-26 06:40:19 51°15.78 2°53.453 20.3078 0.0774 0.394534 -0.848668
2005-05-26 06:40:23 51°15.795 2°53.439 20.3396 0.0774 0.39454 -0.882377
2005-05-26 06:40:29 51°15.814 2°53.423 20.3573 0.0774 0.39454 -0.848668
2005-05-26 06:40:34 51°15.831 2°53.407 20.3589 0.0774 0.39454 -0.882377
2005-05-26 06:40:39 51°15.848 2°53.391 20.3479 0.0774 0.39454 -0.882377
2005-05-26 06:40:44 51°15.864 2°53.375 20.3453 0.0774 0.394552 -0.882377
2005-05-26 06:40:48 51°15.879 2°53.36 20.2699 0.0774 0.394557 -0.814958
2005-05-26 06:40:54 51°15.897 2°53.342 20.2659 0.0774 0.394552 -0.848668
2005-05-26 06:40:59 51°15.914 2°53.327 20.2917 0.0774 0.394552 -0.848668
2005-05-26 06:41:04 51°15.931 2°53.311 20.3251 0.0774 0.394552 -0.848668
2005-05-26 06:41:08 51°15.945 2°53.298 20.3103 0.0774 0.394552 -0.848668
2005-05-26 06:41:14 51°15.964 2°53.282 20.3006 0.0774 0.394552 -0.848668
2005-05-26 06:41:19 51°15.981 2°53.267 20.343 0.0774 0.394552 -0.882377
2005-05-26 06:41:24 51°15.998 2°53.253 20.2975 0.0774 0.394552 -0.848668
2005-05-26 06:41:29 51°16.015 2°53.238 20.3179 0.0774 0.394552 -0.848668
2005-05-26 06:41:34 51°16.032 2°53.223 20.2902 0.0774 0.394552 -0.848668
2005-05-26 06:41:39 51°16.05 2°53.207 20.3149 0.0774 0.394552 -0.848668
2005-05-26 06:41:44 51°16.066 2°53.194 20.315 0.0774 0.394563 -0.848668
2005-05-26 06:41:49 51°16.083 2°53.179 20.3362 0.0774 0.394557 -0.848668
2005-05-26 06:41:54 51°16.099 2°53.164 20.3437 0.0774 0.394569 -0.848668
2005-05-26 06:41:59 51°16.116 2°53.15 20.2745 0.0774 0.394569 -0.848668
2005-05-26 06:42:04 51°16.135 2°53.134 20.316 0.0774 0.394569 -0.848668
2005-05-26 06:42:09 51°16.15 2°53.122 20.2486 0.0774 0.394569 -0.848668
2005-05-26 06:42:13 51°16.167 2°53.11 20.2756 0.0774 0.394569 -0.814958
2005-05-26 06:42:19 51°16.186 2°53.095 20.2457 0.0774 0.394563 -0.848668
2005-05-26 06:42:24 51°16.204 2°53.082 20.3112 0.0774 0.394569 -0.882377
2005-05-26 06:42:29 51°16.221 2°53.069 20.3255 0.0774 0.394569 -0.848668
2005-05-26 06:42:34 51°16.239 2°53.056 20.2701 0.0774 0.394575 -0.848668
2005-05-26 06:42:39 51°16.256 2°53.043 20.3282 0.0774 0.394575 -0.848668
2005-05-26 06:42:43 51°16.272 2°53.031 20.3264 0.0774 0.394575 -0.848668
2005-05-26 06:42:48 51°16.29 2°53.017 20.2606 0.0774 0.39458 -0.848668
2005-05-26 06:42:54 51°16.31 2°53.002 20.3056 0.0774 0.39458 -0.882377
2005-05-26 06:42:59 51°16.327 2°52.988 20.2939 0.0774 0.39458 -0.848668
2005-05-26 06:43:04 51°16.345 2°52.975 20.32 0.0774 0.394575 -0.848668
2005-05-26 06:43:09 51°16.362 2°52.962 20.2693 0.0774 0.394575 -0.848668
2005-05-26 06:43:14 51°16.38 2°52.948 20.2796 0.0774 0.39458 -0.848668
2005-05-26 06:43:19 51°16.398 2°52.935 20.2954 0.0774 0.39458 -0.848668
2005-05-26 06:43:24 51°16.416 2°52.922 20.3225 0.0774 0.394586 -0.848668
2005-05-26 06:43:28 51°16.432 2°52.911 20.312 0.0774 0.39458 -0.848668
2005-05-26 06:43:34 51°16.452 2°52.896 20.3253 0.0774 0.39458 -0.848668
2005-05-26 06:43:38 51°16.466 2°52.886 20.3173 0.0774 0.39458 -0.848668
2005-05-26 06:43:44 51°16.487 2°52.871 20.2869 0.0774 0.394586 -0.882377
2005-05-26 06:43:49 51°16.505 2°52.858 20.2882 0.0774 0.39458 -0.814958
2005-05-26 06:43:54 51°16.522 2°52.845 20.3037 0.0774 0.394586 -0.848668
2005-05-26 06:43:59 51°16.54 2°52.832 20.3059 0.0774 0.394586 -0.848668
2005-05-26 06:44:04 51°16.558 2°52.819 20.3408 0.0774 0.394586 -0.848668
2005-05-26 06:44:09 51°16.576 2°52.806 20.2551 0.0774 0.394586 -0.848668
2005-05-26 06:44:14 51°16.594 2°52.793 20.2859 0.0774 0.394598 -0.814958
2005-05-26 06:44:19 51°16.613 2°52.778 20.2889 0.0774 0.394598 -0.848668
2005-05-26 06:44:24 51°16.629 2°52.766 20.262 0.0774 0.394592 -0.814958
2005-05-26 06:44:29 51°16.646 2°52.753 20.2947 0.0774 0.394598 -0.848668
2005-05-26 06:44:33 51°16.66 2°52.743 20.2814 0.0774 0.394598 -0.848668
2005-05-26 06:44:37 51°16.675 2°52.731 20.2617 0.0774 0.394598 -0.848668
2005-05-26 06:44:44 51°16.698 2°52.715 20.2894 0.0774 0.394592 -0.848668
2005-05-26 06:44:49 51°16.717 2°52.701 20.2765 0.0774 0.394598 -0.848668
2005-05-26 06:44:54 51°16.733 2°52.689 20.2839 0.0774 0.394604 -0.848668
2005-05-26 06:44:59 51°16.75 2°52.676 20.2895 0.0774 0.394598 -0.848668
2005-05-26 06:45:04 51°16.767 2°52.663 20.2628 0.0774 0.394598 -0.848668
2005-05-26 06:45:09 51°16.784 2°52.651 20.2721 0.0774 0.394598 -0.848668
2005-05-26 06:45:13 51°16.798 2°52.641 20.2856 0.0774 0.394604 -0.882377
2005-05-26 06:45:19 51°16.818 2°52.626 20.3177 0.0774 0.394609 -0.848668
2005-05-26 06:45:24 51°16.836 2°52.613 20.3072 0.0774 0.394604 -0.882377
2005-05-26 06:45:28 51°16.851 2°52.601 20.3283 0.0774 0.394615 -0.848668
2005-05-26 06:45:34 51°16.869 2°52.587 20.2935 0.0774 0.394609 -0.848668
2005-05-26 06:45:39 51°16.888 2°52.572 20.2887 0.0774 0.394609 -0.848668
2005-05-26 06:45:44 51°16.903 2°52.56 20.2631 0.0774 0.394609 -0.882377
2005-05-26 06:45:49 51°16.92 2°52.546 20.225 0.0774 0.394621 -0.848668
2005-05-26 06:45:54 51°16.937 2°52.531 20.2961 0.0774 0.394615 -0.848668
2005-05-26 06:45:59 51°16.953 2°52.517 20.2334 0.0774 0.394615 -0.848668
2005-05-26 06:46:04 51°16.971 2°52.504 20.1965 0.0774 0.394609 -0.848668
2005-05-26 06:46:09 51°16.988 2°52.491 20.1552 0.0774 0.394609 -0.848668
2005-05-26 06:46:14 51°17.005 2°52.479 20.1616 0.0774 0.394609 -0.848668
2005-05-26 06:46:18 51°17.019 2°52.47 20.2462 0.0774 0.394609 -0.848668
2005-05-26 06:46:24 51°17.04 2°52.457 20.2812 0.0774 0.394615 -0.882377
2005-05-26 06:46:29 51°17.057 2°52.447 20.3127 0.0774 0.394615 -0.848668
2005-05-26 06:46:34 51°17.075 2°52.436 20.3574 0.0774 0.394621 -0.848668
2005-05-26 06:46:38 51°17.089 2°52.427 20.3548 0.0774 0.394621 -0.848668
2005-05-26 06:46:44 51°17.11 2°52.413 20.3574 0.0774 0.394627 -0.848668
2005-05-26 06:46:48 51°17.125 2°52.401 20.3383 0.0774 0.394627 -0.882377
2005-05-26 06:46:54 51°17.144 2°52.386 20.3421 0.0774 0.394638 -0.848668
2005-05-26 06:46:59 51°17.161 2°52.372 20.3269 0.0774 0.394632 -0.848668
2005-05-26 06:47:04 51°17.178 2°52.357 20.2943 0.0774 0.394632 -0.814958
2005-05-26 06:47:08 51°17.193 2°52.344 20.2721 0.0774 0.394632 -0.814958
2005-05-26 06:47:14 51°17.212 2°52.327 20.2441 0.0774 0.394627 -0.848668
2005-05-26 06:47:19 51°17.228 2°52.312 20.2279 0.0774 0.394627 -0.848668
2005-05-26 06:47:23 51°17.243 2°52.298 20.2172 0.0774 0.394627 -0.848668
2005-05-26 06:47:29 51°17.262 2°52.282 20.291 0.0774 0.394627 -0.848668
2005-05-26 06:47:34 51°17.28 2°52.268 20.28 0.0774 0.394632 -0.848668
2005-05-26 06:47:39 51°17.297 2°52.254 20.2805 0.0774 0.394632 -0.848668
2005-05-26 06:47:44 51°17.314 2°52.24 20.2927 0.0774 0.394627 -0.848668
2005-05-26 06:47:49 51°17.331 2°52.227 20.2778 0.0774 0.394638 -0.848668
2005-05-26 06:47:54 51°17.349 2°52.214 20.335 0.0774 0.394638 -0.848668
2005-05-26 06:47:59 51°17.366 2°52.201 20.3381 0.0774 0.394644 -0.848668
2005-05-26 06:48:04 51°17.384 2°52.187 20.3499 0.0774 0.394638 -0.848668
2005-05-26 06:48:09 51°17.401 2°52.173 20.3506 0.0774 0.394638 -0.848668
2005-05-26 06:48:14 51°17.418 2°52.158 20.3217 0.0774 0.39465 -0.882377
2005-05-26 06:48:19 51°17.434 2°52.143 20.3167 0.0774 0.39465 -0.848668
2005-05-26 06:48:24 51°17.451 2°52.127 20.333 0.0774 0.39465 -0.848668
2005-05-26 06:48:28 51°17.466 2°52.113 20.3224 0.0774 0.394644 -0.848668
2005-05-26 06:48:34 51°17.484 2°52.095 20.2951 0.0774 0.39465 -0.848668
2005-05-26 06:48:39 51°17.502 2°52.077 20.3082 0.0774 0.39465 -0.848668
2005-05-26 06:48:44 51°17.516 2°52.062 20.2624 0.0774 0.39465 -0.882377
2005-05-26 06:48:49 51°17.533 2°52.046 20.2647 0.0774 0.394638 -0.848668
2005-05-26 06:48:54 51°17.549 2°52.031 20.2016 0.0774 0.394638 -0.882377
2005-05-26 06:48:59 51°17.565 2°52.016 20.2798 0.0774 0.394644 -0.814958
2005-05-26 06:49:04 51°17.582 2°52.001 20.2976 0.0774 0.39465 -0.848668
2005-05-26 06:49:08 51°17.597 2°51.988 20.3 0.0774 0.39465 -0.848668
2005-05-26 06:49:14 51°17.615 2°51.971 20.3238 0.0774 0.39465 -0.814958
2005-05-26 06:49:19 51°17.632 2°51.956 20.3373 0.0774 0.39465 -0.848668
2005-05-26 06:49:24 51°17.649 2°51.938 20.3059 0.0774 0.394661 -0.848668
2005-05-26 06:49:28 51°17.662 2°51.925 20.3362 0.0774 0.394667 -0.814958
2005-05-26 06:49:34 51°17.679 2°51.906 20.315 0.0774 0.394673 -0.848668
2005-05-26 06:49:39 51°17.695 2°51.887 20.3217 0.0774 0.394673 -0.848668
2005-05-26 06:49:44 51°17.71 2°51.869 20.3098 0.0774 0.394661 -0.848668
2005-05-26 06:49:48 51°17.724 2°51.852 20.3062 0.0774 0.394661 -0.848668
2005-05-26 06:49:54 51°17.741 2°51.832 20.3033 0.0774 0.394655 -0.848668
2005-05-26 06:49:59 51°17.758 2°51.811 20.2508 0.0774 0.394655 -0.882377
2005-05-26 06:50:04 51°17.771 2°51.794 20.2853 0.0774 0.394655 -0.848668
2005-05-26 06:50:09 51°17.786 2°51.775 20.2867 0.0774 0.394655 -0.848668
2005-05-26 06:50:14 51°17.801 2°51.756 20.3075 0.0774 0.39465 -0.814958
2005-05-26 06:50:19 51°17.818 2°51.735 20.2579 0.0774 0.394661 -0.882377
2005-05-26 06:50:24 51°17.831 2°51.718 20.292 0.0774 0.394655 -0.848668
2005-05-26 06:50:29 51°17.846 2°51.7 20.3443 0.0774 0.394661 -0.848668
2005-05-26 06:50:34 51°17.861 2°51.681 20.3067 0.0774 0.394667 -0.848668
2005-05-26 06:50:39 51°17.876 2°51.661 20.3335 0.0774 0.394667 -0.848668
2005-05-26 06:50:44 51°17.891 2°51.64 20.267 0.0774 0.394673 -0.848668
2005-05-26 06:50:48 51°17.904 2°51.622 20.3163 0.0774 0.394679 -0.848668
2005-05-26 06:50:54 51°17.92 2°51.598 20.2715 0.0774 0.394679 -0.882377
2005-05-26 06:50:58 51°17.931 2°51.581 20.2744 0.0774 0.394667 -0.848668
2005-05-26 06:51:04 51°17.949 2°51.556 20.2721 0.0774 0.394667 -0.848668
2005-05-26 06:51:09 51°17.963 2°51.535 20.2638 0.0774 0.394667 -0.848668
2005-05-26 06:51:13 51°17.976 2°51.516 20.2845 0.0774 0.394673 -0.848668
2005-05-26 06:51:18 51°17.989 2°51.497 20.2897 0.0774 0.394667 -0.848668
2005-05-26 06:51:24 51°18.007 2°51.472 20.3047 0.0774 0.394661 -0.848668
2005-05-26 06:51:28 51°18.021 2°51.454 20.3007 0.0774 0.394667 -0.848668
2005-05-26 06:51:34 51°18.037 2°51.431 20.3052 0.0774 0.394673 -0.882377
2005-05-26 06:51:39 51°18.052 2°51.41 20.3419 0.0774 0.394673 -0.882377
2005-05-26 06:51:44 51°18.067 2°51.389 20.3398 0.0774 0.394679 -0.882377
2005-05-26 06:51:49 51°18.083 2°51.366 20.3337 0.0774 0.394684 -0.848668
2005-05-26 06:51:54 51°18.096 2°51.347 20.3266 0.0774 0.394684 -0.882377
2005-05-26 06:51:58 51°18.108 2°51.33 20.3126 0.0774 0.394684 -0.848668
2005-05-26 06:52:04 51°18.126 2°51.304 20.3055 0.0774 0.394684 -0.848668
2005-05-26 06:52:08 51°18.139 2°51.284 20.2836 0.0774 0.394684 -0.848668
2005-05-26 06:52:14 51°18.155 2°51.261 20.3065 0.0774 0.394684 -0.882377
2005-05-26 06:52:19 51°18.171 2°51.237 20.3985 0.0774 0.394684 -0.848668
2005-05-26 06:52:24 51°18.184 2°51.218 20.2779 0.0774 0.394679 -0.848668
2005-05-26 06:52:29 51°18.198 2°51.194 20.38 0.0774 0.39469 -0.848668
2005-05-26 06:52:34 51°18.211 2°51.169 20.2975 0.0774 0.39469 -0.882377
2005-05-26 06:52:38 51°18.221 2°51.149 20.3155 0.0774 0.39469 -0.882377
2005-05-26 06:52:44 51°18.236 2°51.119 20.3026 0.0774 0.394696 -0.848668
2005-05-26 06:52:49 51°18.249 2°51.093 20.3289 0.0774 0.39469 -0.848668
2005-05-26 06:52:54 51°18.26 2°51.068 20.2603 0.0774 0.394684 -0.848668
2005-05-26 06:52:59 51°18.273 2°51.039 20.3403 0.0774 0.39469 -0.848668
2005-05-26 06:53:04 51°18.283 2°51.015 20.3492 0.0774 0.39469 -0.848668
2005-05-26 06:53:08 51°18.294 2°50.991 20.339 0.0774 0.39469 -0.848668
2005-05-26 06:53:14 51°18.306 2°50.962 20.3171 0.0774 0.39469 -0.882377
2005-05-26 06:53:19 51°18.318 2°50.932 20.2939 0.0774 0.394696 -0.848668
2005-05-26 06:53:24 51°18.329 2°50.905 20.3313 0.0774 0.39469 -0.848668
2005-05-26 06:53:29 51°18.339 2°50.88 20.3604 0.0774 0.39469 -0.882377
2005-05-26 06:53:34 51°18.349 2°50.853 20.3427 0.0774 0.394696 -0.848668
2005-05-26 06:53:39 51°18.358 2°50.825 20.3019 0.0774 0.394696 -0.848668
2005-05-26 06:53:44 51°18.37 2°50.794 20.3009 0.0774 0.39469 -0.882377
2005-05-26 06:53:49 51°18.378 2°50.768 20.3127 0.0774 0.394702 -0.882377
2005-05-26 06:53:54 51°18.388 2°50.74 20.279 0.0774 0.394696 -0.848668
2005-05-26 06:53:58 51°18.395 2°50.717 20.3402 0.0774 0.394696 -0.848668
2005-05-26 06:54:04 51°18.407 2°50.684 20.2975 0.0774 0.394696 -0.848668
2005-05-26 06:54:08 51°18.416 2°50.658 20.3219 0.0774 0.394696 -0.848668
2005-05-26 06:54:14 51°18.426 2°50.627 20.3443 0.0774 0.394696 -0.882377
2005-05-26 06:54:19 51°18.436 2°50.599 20.2738 0.0774 0.394702 -0.848668
2005-05-26 06:54:23 51°18.444 2°50.573 20.2736 0.0774 0.394702 -0.882377
2005-05-26 06:54:29 51°18.455 2°50.542 20.3135 0.0774 0.394707 -0.882377
2005-05-26 06:54:34 51°18.464 2°50.514 20.3035 0.0774 0.394707 -0.848668
2005-05-26 06:54:39 51°18.474 2°50.486 20.3443 0.0774 0.394707 -0.848668
2005-05-26 06:54:44 51°18.483 2°50.457 20.2892 0.0774 0.394707 -0.814958
2005-05-26 06:54:48 51°18.491 2°50.432 20.3339 0.0774 0.394713 -0.848668
2005-05-26 06:54:54 51°18.501 2°50.4 20.3083 0.0774 0.394713 -0.848668
2005-05-26 06:54:59 51°18.511 2°50.372 20.3514 0.0774 0.394707 -0.848668
2005-05-26 06:55:04 51°18.52 2°50.343 20.2743 0.0774 0.394713 -0.848668
2005-05-26 06:55:09 51°18.529 2°50.314 20.3383 0.0774 0.394713 -0.848668
2005-05-26 06:55:14 51°18.538 2°50.286 20.2781 0.0774 0.394713 -0.882377
2005-05-26 06:55:19 51°18.548 2°50.257 20.34 0.0774 0.394713 -0.848668
2005-05-26 06:55:24 51°18.557 2°50.229 20.304 0.0774 0.394707 -0.814958
2005-05-26 06:55:28 51°18.565 2°50.203 20.3095 0.0774 0.394713 -0.882377
2005-05-26 06:55:34 51°18.575 2°50.172 20.3031 0.0774 0.394719 -0.848668
2005-05-26 06:55:39 51°18.584 2°50.143 20.2996 0.0774 0.394719 -0.848668
2005-05-26 06:55:44 51°18.594 2°50.114 20.3071 0.0774 0.394719 -0.848668
2005-05-26 06:55:48 51°18.602 2°50.089 20.3174 0.0774 0.394719 -0.848668
2005-05-26 06:55:54 51°18.612 2°50.057 20.35 0.0774 0.394719 -0.848668
2005-05-26 06:55:58 51°18.62 2°50.034 20.3452 0.0774 0.394731 -0.848668
2005-05-26 06:56:04 51°18.631 2°50 20.3622 0.0774 0.394725 -0.848668
2005-05-26 06:56:08 51°18.639 2°49.974 20.3052 0.0774 0.394725 -0.848668
2005-05-26 06:56:14 51°18.648 2°49.942 20.3657 0.0774 0.394731 -0.848668
2005-05-26 06:56:19 51°18.656 2°49.913 20.279 0.0774 0.394731 -0.882377
2005-05-26 06:56:24 51°18.664 2°49.884 20.3535 0.0774 0.394731 -0.848668
2005-05-26 06:56:29 51°18.672 2°49.854 20.2979 0.0774 0.394736 -0.848668
2005-05-26 06:56:34 51°18.68 2°49.824 20.3505 0.0774 0.394725 -0.848668
2005-05-26 06:56:39 51°18.687 2°49.794 20.3254 0.0774 0.394725 -0.848668
2005-05-26 06:56:44 51°18.695 2°49.765 20.28 0.0774 0.394731 -0.848668
2005-05-26 06:56:49 51°18.703 2°49.735 20.2905 0.0774 0.394725 -0.848668
2005-05-26 06:56:54 51°18.711 2°49.707 20.3035 0.0774 0.394731 -0.882377
2005-05-26 06:56:58 51°18.718 2°49.68 20.254 0.0774 0.394736 -0.814958
2005-05-26 06:57:04 51°18.727 2°49.648 20.2167 0.0774 0.394736 -0.848668
2005-05-26 06:57:08 51°18.734 2°49.621 20.3099 0.0774 0.394736 -0.848668
2005-05-26 06:57:14 51°18.743 2°49.589 20.3102 0.0774 0.394736 -0.848668
2005-05-26 06:57:19 51°18.751 2°49.56 20.2925 0.0774 0.394736 -0.848668
2005-05-26 06:57:24 51°18.759 2°49.53 20.3077 0.0774 0.394742 -0.848668
2005-05-26 06:57:29 51°18.767 2°49.501 20.3132 0.0774 0.394742 -0.848668
2005-05-26 06:57:33 51°18.774 2°49.474 20.2582 0.0774 0.394736 -0.848668
2005-05-26 06:57:38 51°18.783 2°49.444 20.2854 0.0774 0.394736 -0.848668
2005-05-26 06:57:44 51°18.791 2°49.412 20.2902 0.0774 0.394748 -0.814958
2005-05-26 06:57:49 51°18.799 2°49.383 20.2772 0.0774 0.394748 -0.848668
2005-05-26 06:57:54 51°18.807 2°49.353 20.2758 0.0774 0.394748 -0.848668
2005-05-26 06:57:59 51°18.815 2°49.323 20.2981 0.0774 0.394748 -0.882377
2005-05-26 06:58:04 51°18.823 2°49.293 20.2934 0.0774 0.394748 -0.848668
2005-05-26 06:58:09 51°18.832 2°49.263 20.2551 0.0774 0.394748 -0.848668
2005-05-26 06:58:14 51°18.84 2°49.233 20.304 0.0774 0.394748 -0.848668
2005-05-26 06:58:18 51°18.847 2°49.206 20.276 0.0774 0.394754 -0.814958
2005-05-26 06:58:24 51°18.856 2°49.172 20.2927 0.0774 0.394748 -0.848668
2005-05-26 06:58:29 51°18.865 2°49.14 20.2242 0.0774 0.394759 -0.848668
2005-05-26 06:58:34 51°18.873 2°49.113 20.313 0.0774 0.394759 -0.882377
2005-05-26 06:58:39 51°18.881 2°49.083 20.2974 0.0774 0.394759 -0.882377
2005-05-26 06:58:44 51°18.889 2°49.052 20.2684 0.0774 0.394759 -0.848668
2005-05-26 06:58:49 51°18.897 2°49.022 20.2649 0.0774 0.394759 -0.848668
2005-05-26 06:58:54 51°18.906 2°48.992 20.26 0.0774 0.394759 -0.882377
2005-05-26 06:58:59 51°18.914 2°48.962 20.275 0.0774 0.394759 -0.848668
2005-05-26 06:59:04 51°18.922 2°48.932 20.284 0.0774 0.394759 -0.882377
2005-05-26 06:59:09 51°18.931 2°48.902 20.3 0.0774 0.394759 -0.882377
2005-05-26 06:59:14 51°18.939 2°48.872 20.3161 0.0774 0.394759 -0.848668
2005-05-26 06:59:19 51°18.947 2°48.841 20.2747 0.0774 0.394765 -0.814958
2005-05-26 06:59:24 51°18.956 2°48.811 20.2677 0.0774 0.394771 -0.814958
2005-05-26 06:59:29 51°18.964 2°48.78 20.2985 0.0774 0.394765 -0.814958
2005-05-26 06:59:34 51°18.972 2°48.75 20.3137 0.0774 0.394777 -0.882377
2005-05-26 06:59:39 51°18.981 2°48.72 20.2771 0.0774 0.394777 -0.882377
2005-05-26 06:59:44 51°18.989 2°48.689 20.2917 0.0774 0.394777 -0.882377
2005-05-26 06:59:49 51°18.997 2°48.659 20.3202 0.0774 0.394777 -0.848668
2005-05-26 06:59:54 51°19.005 2°48.629 20.3179 0.0774 0.394771 -0.848668
2005-05-26 06:59:59 51°19.013 2°48.596 20.2456 0.0774 0.394777 -0.882377
2005-05-26 07:00:04 51°19.02 2°48.568 20.2768 0.0774 0.394777 -0.848668
2005-05-26 07:00:09 51°19.029 2°48.538 20.2933 0.0774 0.394777 -0.848668
2005-05-26 07:00:14 51°19.037 2°48.509 20.3094 0.0774 0.394777 -0.848668
2005-05-26 07:00:19 51°19.045 2°48.479 20.2722 0.0774 0.394783 -0.848668
2005-05-26 07:00:24 51°19.053 2°48.446 20.3047 0.0774 0.394783 -0.848668
2005-05-26 07:00:28 51°19.06 2°48.422 20.3182 0.0774 0.394783 -0.814958
2005-05-26 07:00:34 51°19.068 2°48.389 20.2831 0.0774 0.394794 -0.848668
2005-05-26 07:00:39 51°19.076 2°48.359 20.2346 0.0774 0.394794 -0.848668
2005-05-26 07:00:43 51°19.083 2°48.332 20.273 0.0774 0.394788 -0.848668
2005-05-26 07:00:48 51°19.091 2°48.302 20.296 0.0774 0.394783 -0.848668
2005-05-26 07:00:54 51°19.1 2°48.27 20.2848 0.0774 0.394788 -0.848668
2005-05-26 07:00:58 51°19.107 2°48.243 20.3255 0.0774 0.394788 -0.814958
2005-05-26 07:01:04 51°19.116 2°48.21 20.3213 0.077296 0.394247 -0.882377
2005-05-26 07:01:09 51°19.124 2°48.178 20.2856 0.077296 0.394247 -0.882377
2005-05-26 07:01:14 51°19.131 2°48.151 20.2916 0.0774 0.3948 -0.848668
2005-05-26 07:01:19 51°19.14 2°48.118 20.3201 0.0774 0.394794 -0.848668
2005-05-26 07:01:24 51°19.147 2°48.091 20.3216 0.0774 0.394794 -0.848668
2005-05-26 07:01:29 51°19.154 2°48.061 20.3295 0.0774 0.3948 -0.882377
2005-05-26 07:01:34 51°19.161 2°48.03 20.3126 0.0774 0.3948 -0.848668
2005-05-26 07:01:39 51°19.168 2°47.997 20.3065 0.0774 0.3948 -0.848668
2005-05-26 07:01:44 51°19.174 2°47.97 20.3102 0.0774 0.394806 -0.882377
2005-05-26 07:01:49 51°19.181 2°47.94 20.2802 0.0774 0.394806 -0.848668
2005-05-26 07:01:54 51°19.188 2°47.909 20.2915 0.0774 0.394806 -0.848668
2005-05-26 07:01:59 51°19.194 2°47.879 20.2683 0.0774 0.3948 -0.848668
2005-05-26 07:02:04 51°19.201 2°47.848 20.3125 0.0774 0.394806 -0.848668
2005-05-26 07:02:08 51°19.207 2°47.821 20.3006 0.0774 0.394806 -0.848668
2005-05-26 07:02:14 51°19.214 2°47.787 20.2961 0.0774 0.394806 -0.814958
2005-05-26 07:02:18 51°19.22 2°47.759 20.3037 0.077296 0.394252 -0.848668
2005-05-26 07:02:24 51°19.228 2°47.723 20.3138 0.0774 0.394811 -0.848668
2005-05-26 07:02:28 51°19.234 2°47.698 20.3162 0.0774 0.394811 -0.882377
2005-05-26 07:02:34 51°19.241 2°47.664 20.2471 0.0774 0.394811 -0.882377
2005-05-26 07:02:39 51°19.248 2°47.631 20.3175 0.0774 0.394811 -0.882377
2005-05-26 07:02:44 51°19.254 2°47.603 20.324 0.077296 0.39427 -0.882377
2005-05-26 07:02:49 51°19.261 2°47.572 20.312 0.0774 0.394811 -0.882377
2005-05-26 07:02:54 51°19.268 2°47.541 20.3052 0.0774 0.394823 -0.848668
2005-05-26 07:02:58 51°19.274 2°47.513 20.3154 0.077296 0.394276 -0.848668
2005-05-26 07:03:04 51°19.281 2°47.479 20.3343 0.0774 0.394823 -0.848668
2005-05-26 07:03:09 51°19.287 2°47.448 20.294 0.0774 0.394823 -0.848668
2005-05-26 07:03:14 51°19.294 2°47.418 20.3285 0.0774 0.394823 -0.848668
2005-05-26 07:03:19 51°19.301 2°47.387 20.3088 0.077296 0.394276 -0.848668
2005-05-26 07:03:23 51°19.307 2°47.36 20.3242 0.0774 0.394823 -0.848668
2005-05-26 07:03:29 51°19.314 2°47.326 20.2938 0.0774 0.394823 -0.882377
2005-05-26 07:03:34 51°19.321 2°47.295 20.3203 0.0774 0.394829 -0.848668
2005-05-26 07:03:38 51°19.327 2°47.267 20.2609 0.0774 0.394829 -0.848668
2005-05-26 07:03:44 51°19.335 2°47.234 20.3095 0.0774 0.394835 -0.848668
2005-05-26 07:03:49 51°19.342 2°47.203 20.3227 0.0774 0.394829 -0.848668
2005-05-26 07:03:54 51°19.348 2°47.172 20.3147 0.0774 0.394829 -0.848668
2005-05-26 07:03:59 51°19.355 2°47.141 20.2957 0.0774 0.394835 -0.848668
2005-05-26 07:04:04 51°19.362 2°47.111 20.336 0.0774 0.394835 -0.848668
2005-05-26 07:04:09 51°19.369 2°47.08 20.3282 0.0774 0.394835 -0.848668
2005-05-26 07:04:14 51°19.376 2°47.049 20.3092 0.077296 0.394287 -0.848668
2005-05-26 07:04:19 51°19.384 2°47.015 20.3418 0.077296 0.394287 -0.848668
2005-05-26 07:04:24 51°19.39 2°46.988 20.3347 0.0774 0.39484 -0.848668
2005-05-26 07:04:29 51°19.397 2°46.957 20.3278 0.077296 0.394293 -0.848668
2005-05-26 07:04:34 51°19.404 2°46.926 20.2952 0.0774 0.39484 -0.848668
2005-05-26 07:04:39 51°19.412 2°46.892 20.3357 0.0774 0.39484 -0.848668
2005-05-26 07:04:44 51°19.418 2°46.864 20.3075 0.077296 0.394287 -0.848668
2005-05-26 07:04:49 51°19.426 2°46.83 20.3464 0.0774 0.39484 -0.848668
2005-05-26 07:04:54 51°19.432 2°46.803 20.3196 0.0774 0.394846 -0.848668
2005-05-26 07:04:59 51°19.439 2°46.771 20.3184 0.077296 0.394293 -0.848668
2005-05-26 07:05:04 51°19.446 2°46.741 20.3387 0.0774 0.394846 -0.848668
2005-05-26 07:05:09 51°19.453 2°46.71 20.3042 0.0774 0.394846 -0.848668
2005-05-26 07:05:14 51°19.459 2°46.678 20.3112 0.0774 0.39484 -0.848668
2005-05-26 07:05:18 51°19.463 2°46.653 20.3062 0.0774 0.394858 -0.848668
2005-05-26 07:05:24 51°19.47 2°46.614 20.3277 0.0774 0.394858 -0.814958
2005-05-26 07:05:28 51°19.475 2°46.586 20.2926 0.077296 0.394304 -0.848668
2005-05-26 07:05:34 51°19.481 2°46.551 20.339 0.077296 0.39431 -0.848668
2005-05-26 07:05:39 51°19.486 2°46.519 20.2876 0.077296 0.39431 -0.848668
2005-05-26 07:05:43 51°19.491 2°46.49 20.3283 0.077296 0.394304 -0.848668
2005-05-26 07:05:49 51°19.496 2°46.455 20.312 0.077296 0.394304 -0.848668
2005-05-26 07:05:54 51°19.501 2°46.423 20.3141 0.0774 0.394863 -0.848668
2005-05-26 07:05:59 51°19.506 2°46.39 20.2976 0.077296 0.39431 -0.882377
2005-05-26 07:06:04 51°19.511 2°46.361 20.3124 0.077296 0.394316 -0.848668
2005-05-26 07:06:09 51°19.516 2°46.33 20.305 0.077296 0.394316 -0.848668
2005-05-26 07:06:14 51°19.521 2°46.298 20.3427 0.077296 0.394316 -0.848668
2005-05-26 07:06:19 51°19.527 2°46.263 20.3243 0.077296 0.394316 -0.848668
2005-05-26 07:06:24 51°19.531 2°46.234 20.3578 0.077296 0.394316 -0.882377
2005-05-26 07:06:29 51°19.537 2°46.199 20.335 0.077296 0.394316 -0.848668
2005-05-26 07:06:34 51°19.542 2°46.171 20.3222 0.0774 0.394869 -0.848668
2005-05-26 07:06:39 51°19.546 2°46.139 20.3272 0.0774 0.394869 -0.848668
2005-05-26 07:06:44 51°19.551 2°46.108 20.3415 0.0774 0.394869 -0.848668
2005-05-26 07:06:49 51°19.557 2°46.076 20.3397 0.077296 0.394322 -0.848668
2005-05-26 07:06:54 51°19.562 2°46.044 20.3223 0.077296 0.394327 -0.848668
2005-05-26 07:06:59 51°19.567 2°46.01 20.2919 0.077296 0.394322 -0.848668
2005-05-26 07:07:04 51°19.572 2°45.981 20.3256 0.077296 0.394322 -0.882377
2005-05-26 07:07:08 51°19.577 2°45.953 20.3383 0.077296 0.394322 -0.882377
2005-05-26 07:07:14 51°19.582 2°45.918 20.3256 0.077296 0.394327 -0.848668
2005-05-26 07:07:19 51°19.587 2°45.887 20.3429 0.077296 0.394333 -0.848668
2005-05-26 07:07:24 51°19.593 2°45.855 20.3508 0.077296 0.394333 -0.848668
2005-05-26 07:07:29 51°19.597 2°45.824 20.3651 0.0774 0.394887 -0.848668
2005-05-26 07:07:34 51°19.602 2°45.792 20.2884 0.0774 0.394881 -0.848668
2005-05-26 07:07:39 51°19.608 2°45.758 20.3411 0.0774 0.394881 -0.848668
2005-05-26 07:07:44 51°19.613 2°45.729 20.3434 0.077296 0.394339 -0.848668
2005-05-26 07:07:49 51°19.618 2°45.695 20.3383 0.077296 0.394339 -0.848668
2005-05-26 07:07:54 51°19.623 2°45.666 20.2875 0.077296 0.394345 -0.848668
2005-05-26 07:07:59 51°19.629 2°45.631 20.3524 0.077296 0.394339 -0.882377
2005-05-26 07:08:04 51°19.634 2°45.603 20.3477 0.077296 0.394339 -0.848668
2005-05-26 07:08:08 51°19.639 2°45.575 20.3275 0.077296 0.394339 -0.848668
2005-05-26 07:08:14 51°19.644 2°45.54 20.3519 0.077296 0.394345 -0.882377
2005-05-26 07:08:19 51°19.65 2°45.508 20.3549 0.0774 0.394892 -0.814958
2005-05-26 07:08:24 51°19.655 2°45.477 20.3594 0.077296 0.394345 -0.848668
2005-05-26 07:08:28 51°19.66 2°45.448 20.3423 0.077296 0.394339 -0.848668
2005-05-26 07:08:34 51°19.666 2°45.413 20.3447 0.077296 0.394351 -0.848668
2005-05-26 07:08:39 51°19.672 2°45.378 20.3028 0.077296 0.394351 -0.848668
2005-05-26 07:08:44 51°19.676 2°45.348 20.3209 0.077296 0.394351 -0.848668
2005-05-26 07:08:49 51°19.681 2°45.316 20.3223 0.077296 0.394351 -0.848668
2005-05-26 07:08:54 51°19.686 2°45.283 20.3262 0.077296 0.394356 -0.848668
2005-05-26 07:08:58 51°19.691 2°45.254 20.31 0.077296 0.394356 -0.848668
2005-05-26 07:09:04 51°19.696 2°45.218 20.2694 0.077296 0.394356 -0.848668
2005-05-26 07:09:08 51°19.7 2°45.189 20.3542 0.077296 0.394356 -0.848668
2005-05-26 07:09:14 51°19.705 2°45.153 20.3235 0.077296 0.394351 -0.848668
2005-05-26 07:09:19 51°19.71 2°45.117 20.358 0.077296 0.394356 -0.848668
2005-05-26 07:09:24 51°19.715 2°45.085 20.3552 0.077296 0.394356 -0.848668
2005-05-26 07:09:29 51°19.719 2°45.056 20.3341 0.077296 0.394368 -0.848668
2005-05-26 07:09:34 51°19.724 2°45.024 20.3622 0.077296 0.394362 -0.814958
2005-05-26 07:09:39 51°19.729 2°44.991 20.3353 0.077296 0.394362 -0.814958
2005-05-26 07:09:44 51°19.734 2°44.959 20.3568 0.077296 0.394362 -0.848668
2005-05-26 07:09:49 51°19.738 2°44.927 20.3319 0.077296 0.394362 -0.848668
2005-05-26 07:09:54 51°19.743 2°44.894 20.3481 0.077296 0.394368 -0.848668
2005-05-26 07:09:58 51°19.747 2°44.865 20.3291 0.077296 0.394368 -0.848668
2005-05-26 07:10:04 51°19.752 2°44.83 20.3593 0.077296 0.394374 -0.848668
2005-05-26 07:10:09 51°19.758 2°44.795 20.3609 0.077296 0.394374 -0.848668
2005-05-26 07:10:14 51°19.762 2°44.766 20.3494 0.077296 0.394368 -0.848668
2005-05-26 07:10:19 51°19.767 2°44.733 20.326 0.077296 0.394374 -0.848668
2005-05-26 07:10:24 51°19.772 2°44.701 20.3685 0.077296 0.394374 -0.882377
2005-05-26 07:10:29 51°19.776 2°44.669 20.3435 0.077296 0.394374 -0.848668
2005-05-26 07:10:34 51°19.781 2°44.636 20.3626 0.077296 0.394379 -0.882377
2005-05-26 07:10:39 51°19.786 2°44.604 20.3235 0.077296 0.394379 -0.882377
2005-05-26 07:10:44 51°19.791 2°44.572 20.3484 0.077296 0.394379 -0.848668
2005-05-26 07:10:49 51°19.795 2°44.539 20.279 0.077296 0.394374 -0.882377
2005-05-26 07:10:54 51°19.8 2°44.507 20.3272 0.077296 0.394379 -0.848668
2005-05-26 07:10:59 51°19.805 2°44.475 20.3324 0.077296 0.394374 -0.882377
2005-05-26 07:11:04 51°19.81 2°44.443 20.3668 0.0774 0.394927 -0.848668
2005-05-26 07:11:08 51°19.814 2°44.414 20.3488 0.0774 0.394927 -0.848668
2005-05-26 07:11:14 51°19.819 2°44.378 20.3475 0.077296 0.394385 -0.882377
2005-05-26 07:11:19 51°19.824 2°44.343 20.314 0.077296 0.394385 -0.848668
2005-05-26 07:11:24 51°19.829 2°44.311 20.3616 0.077296 0.394385 -0.882377
2005-05-26 07:11:29 51°19.833 2°44.282 20.3398 0.077296 0.394391 -0.848668
2005-05-26 07:11:33 51°19.837 2°44.256 20.3356 0.077296 0.394391 -0.848668
2005-05-26 07:11:38 51°19.842 2°44.221 20.3682 0.077296 0.394391 -0.848668
2005-05-26 07:11:44 51°19.848 2°44.183 20.3397 0.077296 0.394385 -0.848668
2005-05-26 07:11:49 51°19.852 2°44.154 20.3556 0.077296 0.394391 -0.848668
2005-05-26 07:11:53 51°19.856 2°44.128 20.3587 0.077296 0.394397 -0.848668
2005-05-26 07:11:58 51°19.861 2°44.093 20.3621 0.077296 0.394397 -0.882377
2005-05-26 07:12:04 51°19.867 2°44.055 20.3426 0.077296 0.394397 -0.882377
2005-05-26 07:12:09 51°19.872 2°44.026 20.3698 0.077296 0.394397 -0.882377
2005-05-26 07:12:14 51°19.876 2°43.994 20.3531 0.077296 0.394397 -0.848668
2005-05-26 07:12:19 51°19.881 2°43.959 20.3579 0.077296 0.394403 -0.848668
2005-05-26 07:12:24 51°19.886 2°43.93 20.3545 0.077296 0.394403 -0.848668
2005-05-26 07:12:29 51°19.891 2°43.895 20.3481 0.077296 0.394403 -0.848668
2005-05-26 07:12:34 51°19.896 2°43.866 20.3376 0.077296 0.394403 -0.848668
2005-05-26 07:12:39 51°19.902 2°43.83 20.317 0.077296 0.394403 -0.848668
2005-05-26 07:12:44 51°19.906 2°43.801 20.3883 0.077296 0.394408 -0.882377
2005-05-26 07:12:48 51°19.911 2°43.772 20.3594 0.077296 0.394408 -0.848668
2005-05-26 07:12:54 51°19.916 2°43.737 20.3726 0.077296 0.394414 -0.882377
2005-05-26 07:12:58 51°19.92 2°43.708 20.3425 0.077296 0.394408 -0.848668
2005-05-26 07:13:04 51°19.926 2°43.671 20.3628 0.077296 0.394414 -0.848668
2005-05-26 07:13:09 51°19.931 2°43.642 20.374 0.077296 0.394414 -0.848668
2005-05-26 07:13:14 51°19.936 2°43.611 20.3597 0.077296 0.394414 -0.848668
2005-05-26 07:13:19 51°19.941 2°43.576 20.3425 0.077296 0.394414 -0.848668
2005-05-26 07:13:24 51°19.945 2°43.547 20.363 0.077296 0.394426 -0.882377
2005-05-26 07:13:29 51°19.95 2°43.516 20.3488 0.077296 0.394426 -0.848668
2005-05-26 07:13:34 51°19.955 2°43.484 20.3679 0.077296 0.39442 -0.848668
2005-05-26 07:13:39 51°19.961 2°43.449 20.3752 0.077296 0.39442 -0.848668
2005-05-26 07:13:44 51°19.966 2°43.42 20.3721 0.077296 0.394414 -0.848668
2005-05-26 07:13:48 51°19.97 2°43.392 20.4016 0.077296 0.39442 -0.882377
2005-05-26 07:13:54 51°19.976 2°43.357 20.3777 0.077296 0.394426 -0.848668
2005-05-26 07:13:58 51°19.981 2°43.328 20.3437 0.077296 0.394426 -0.882377
2005-05-26 07:14:04 51°19.986 2°43.293 20.3791 0.077296 0.394426 -0.848668
2005-05-26 07:14:09 51°19.992 2°43.262 20.3646 0.077296 0.394426 -0.848668
2005-05-26 07:14:14 51°19.997 2°43.23 20.3536 0.077296 0.394426 -0.848668
2005-05-26 07:14:19 51°20.002 2°43.199 20.3478 0.077296 0.394431 -0.814958
2005-05-26 07:14:24 51°20.008 2°43.167 20.3735 0.077296 0.394437 -0.848668
2005-05-26 07:14:29 51°20.013 2°43.132 20.3779 0.077296 0.394437 -0.848668
2005-05-26 07:14:34 51°20.018 2°43.104 20.3705 0.077296 0.394437 -0.848668
2005-05-26 07:14:39 51°20.023 2°43.072 20.3799 0.077296 0.394437 -0.848668
2005-05-26 07:14:44 51°20.028 2°43.04 20.3842 0.077296 0.394443 -0.848668
2005-05-26 07:14:49 51°20.033 2°43.009 20.3785 0.077296 0.394437 -0.848668
2005-05-26 07:14:54 51°20.039 2°42.977 20.3712 0.077296 0.394437 -0.848668
2005-05-26 07:14:59 51°20.045 2°42.943 20.3778 0.077296 0.394449 -0.882377
2005-05-26 07:15:04 51°20.05 2°42.914 20.3726 0.077296 0.394443 -0.882377
2005-05-26 07:15:09 51°20.055 2°42.883 20.3556 0.077296 0.394443 -0.882377
2005-05-26 07:15:14 51°20.06 2°42.852 20.3863 0.077296 0.394443 -0.848668
2005-05-26 07:15:19 51°20.065 2°42.817 20.3763 0.077296 0.394449 -0.848668
2005-05-26 07:15:24 51°20.07 2°42.789 20.3817 0.077296 0.394455 -0.848668
2005-05-26 07:15:29 51°20.075 2°42.754 20.4007 0.077296 0.394455 -0.848668
2005-05-26 07:15:34 51°20.08 2°42.726 20.4164 0.077296 0.394449 -0.848668
2005-05-26 07:15:39 51°20.084 2°42.691 20.3862 0.077296 0.394449 -0.848668
2005-05-26 07:15:44 51°20.088 2°42.659 20.3422 0.077296 0.39446 -0.848668
2005-05-26 07:15:48 51°20.092 2°42.633 20.3768 0.077296 0.394455 -0.882377
2005-05-26 07:15:54 51°20.096 2°42.598 20.3921 0.077296 0.394455 -0.882377
2005-05-26 07:15:59 51°20.101 2°42.564 20.358 0.077296 0.394455 -0.848668
2005-05-26 07:16:04 51°20.105 2°42.535 20.3902 0.077296 0.39446 -0.882377
2005-05-26 07:16:09 51°20.11 2°42.503 20.3739 0.077296 0.39446 -0.882377
2005-05-26 07:16:14 51°20.114 2°42.472 20.4002 0.077296 0.39446 -0.848668
2005-05-26 07:16:19 51°20.119 2°42.44 20.3915 0.077296 0.394466 -0.882377
2005-05-26 07:16:24 51°20.124 2°42.408 20.4073 0.077296 0.394466 -0.848668
2005-05-26 07:16:29 51°20.128 2°42.377 20.3785 0.077296 0.394472 -0.882377
2005-05-26 07:16:34 51°20.133 2°42.345 20.4191 0.077296 0.394466 -0.848668
2005-05-26 07:16:39 51°20.137 2°42.313 20.3624 0.077296 0.394466 -0.848668
2005-05-26 07:16:44 51°20.143 2°42.279 20.4062 0.077296 0.394478 -0.882377
2005-05-26 07:16:48 51°20.146 2°42.253 20.3759 0.077296 0.394466 -0.848668
2005-05-26 07:16:54 51°20.152 2°42.218 20.4097 0.077296 0.394478 -0.848668
2005-05-26 07:16:59 51°20.157 2°42.186 20.3723 0.077296 0.394478 -0.848668
2005-05-26 07:17:04 51°20.162 2°42.154 20.3743 0.077296 0.394478 -0.848668
2005-05-26 07:17:09 51°20.166 2°42.123 20.3904 0.077296 0.394478 -0.848668
2005-05-26 07:17:14 51°20.171 2°42.091 20.4156 0.077296 0.394483 -0.882377
2005-05-26 07:17:19 51°20.176 2°42.056 20.4117 0.077296 0.394483 -0.814958
2005-05-26 07:17:24 51°20.18 2°42.027 20.3773 0.077296 0.394483 -0.882377
2005-05-26 07:17:29 51°20.185 2°41.995 20.3827 0.077296 0.394489 -0.848668
2005-05-26 07:17:34 51°20.19 2°41.963 20.4073 0.077296 0.394478 -0.848668
2005-05-26 07:17:39 51°20.195 2°41.928 20.3907 0.077296 0.394478 -0.848668
2005-05-26 07:17:44 51°20.199 2°41.899 20.4064 0.077296 0.394489 -0.882377
2005-05-26 07:17:48 51°20.204 2°41.87 20.3785 0.077296 0.394489 -0.814958
2005-05-26 07:17:54 51°20.209 2°41.835 20.4101 0.077296 0.394495 -0.848668
2005-05-26 07:17:59 51°20.214 2°41.802 20.4088 0.077296 0.394489 -0.848668
2005-05-26 07:18:04 51°20.22 2°41.767 20.4242 0.077296 0.394495 -0.848668
2005-05-26 07:18:08 51°20.224 2°41.742 20.4058 0.077296 0.394495 -0.848668
2005-05-26 07:18:14 51°20.229 2°41.706 20.4017 0.077296 0.394495 -0.848668
2005-05-26 07:18:19 51°20.234 2°41.671 20.4135 0.077296 0.394501 -0.814958
2005-05-26 07:18:24 51°20.239 2°41.642 20.3791 0.077296 0.394501 -0.814958
2005-05-26 07:18:28 51°20.243 2°41.613 20.4318 0.077296 0.394507 -0.882377
2005-05-26 07:18:34 51°20.249 2°41.577 20.4149 0.077296 0.394501 -0.848668
2005-05-26 07:18:38 51°20.253 2°41.548 20.4262 0.077296 0.394501 -0.848668
2005-05-26 07:18:44 51°20.259 2°41.512 20.3934 0.077296 0.394507 -0.882377
2005-05-26 07:18:49 51°20.263 2°41.48 20.4321 0.077296 0.394507 -0.848668
2005-05-26 07:18:54 51°20.268 2°41.448 20.373 0.077296 0.394507 -0.848668
2005-05-26 07:18:59 51°20.274 2°41.415 20.4337 0.077296 0.394512 -0.814958
2005-05-26 07:19:04 51°20.278 2°41.383 20.4057 0.077296 0.394512 -0.848668
2005-05-26 07:19:09 51°20.284 2°41.348 20.3655 0.077296 0.394512 -0.848668
2005-05-26 07:19:14 51°20.288 2°41.319 20.4201 0.077296 0.394518 -0.848668
2005-05-26 07:19:19 51°20.294 2°41.283 20.4136 0.077296 0.394518 -0.848668
2005-05-26 07:19:24 51°20.298 2°41.254 20.4563 0.077296 0.394518 -0.848668
2005-05-26 07:19:29 51°20.303 2°41.222 20.411 0.077296 0.394524 -0.882377
2005-05-26 07:19:34 51°20.308 2°41.19 20.4507 0.077296 0.394524 -0.848668
2005-05-26 07:19:39 51°20.313 2°41.154 20.4167 0.077296 0.394524 -0.848668
2005-05-26 07:19:44 51°20.318 2°41.125 20.4342 0.077296 0.394524 -0.882377
2005-05-26 07:19:48 51°20.322 2°41.096 20.3996 0.077296 0.394524 -0.848668
2005-05-26 07:19:54 51°20.328 2°41.061 20.4442 0.077296 0.39453 -0.848668
2005-05-26 07:19:58 51°20.332 2°41.032 20.4472 0.077296 0.39453 -0.848668
2005-05-26 07:20:04 51°20.338 2°40.994 20.4467 0.077296 0.39453 -0.848668
2005-05-26 07:20:09 51°20.343 2°40.964 20.4276 0.077296 0.39453 -0.848668
2005-05-26 07:20:14 51°20.348 2°40.932 20.4585 0.077296 0.394535 -0.882377
2005-05-26 07:20:19 51°20.353 2°40.897 20.399 0.077296 0.394535 -0.848668
2005-05-26 07:20:24 51°20.357 2°40.868 20.4476 0.077296 0.394541 -0.848668
2005-05-26 07:20:29 51°20.362 2°40.835 20.397 0.077296 0.394541 -0.848668
2005-05-26 07:20:34 51°20.367 2°40.803 20.4532 0.077296 0.394541 -0.848668
2005-05-26 07:20:39 51°20.372 2°40.768 20.4164 0.077296 0.394541 -0.848668
2005-05-26 07:20:44 51°20.377 2°40.735 20.4463 0.077296 0.394547 -0.848668
2005-05-26 07:20:48 51°20.381 2°40.709 20.4282 0.077296 0.394541 -0.882377
2005-05-26 07:20:54 51°20.385 2°40.674 20.4096 0.077296 0.394553 -0.848668
2005-05-26 07:20:59 51°20.39 2°40.641 20.4361 0.077296 0.394541 -0.848668
2005-05-26 07:21:04 51°20.395 2°40.609 20.4222 0.077296 0.394547 -0.848668
2005-05-26 07:21:09 51°20.401 2°40.574 20.4499 0.077296 0.394547 -0.848668
2005-05-26 07:21:14 51°20.405 2°40.545 20.4398 0.077296 0.394541 -0.882377
2005-05-26 07:21:19 51°20.409 2°40.513 20.4286 0.077296 0.394553 -0.848668
2005-05-26 07:21:24 51°20.414 2°40.481 20.4312 0.077296 0.394559 -0.848668
2005-05-26 07:21:29 51°20.42 2°40.446 20.4384 0.077296 0.394553 -0.848668
2005-05-26 07:21:34 51°20.424 2°40.416 20.4221 0.077296 0.394559 -0.882377
2005-05-26 07:21:39 51°20.429 2°40.381 20.431 0.077296 0.394559 -0.882377
2005-05-26 07:21:44 51°20.434 2°40.352 20.4589 0.077296 0.394553 -0.882377
2005-05-26 07:21:49 51°20.439 2°40.317 20.4517 0.077296 0.394559 -0.814958
2005-05-26 07:21:54 51°20.443 2°40.288 20.4526 0.077296 0.394559 -0.882377
2005-05-26 07:21:59 51°20.449 2°40.253 20.4463 0.077296 0.394564 -0.848668
2005-05-26 07:22:04 51°20.453 2°40.224 20.4338 0.077296 0.39457 -0.848668
2005-05-26 07:22:08 51°20.457 2°40.195 20.4098 0.077296 0.39457 -0.848668
2005-05-26 07:22:14 51°20.463 2°40.159 20.4618 0.077296 0.394564 -0.814958
2005-05-26 07:22:19 51°20.468 2°40.124 20.4406 0.077296 0.394564 -0.848668
2005-05-26 07:22:24 51°20.472 2°40.095 20.471 0.077296 0.394564 -0.848668
2005-05-26 07:22:29 51°20.477 2°40.062 20.4903 0.077296 0.394559 -0.882377
2005-05-26 07:22:34 51°20.479 2°40.029 20.4433 0.077296 0.394582 -0.848668
2005-05-26 07:22:39 51°20.483 2°39.994 20.4495 0.077296 0.394582 -0.848668
2005-05-26 07:22:44 51°20.485 2°39.964 20.436 0.077296 0.394576 -0.882377
2005-05-26 07:22:49 51°20.488 2°39.931 20.4548 0.077296 0.394582 -0.882377
2005-05-26 07:22:54 51°20.49 2°39.898 20.4546 0.077296 0.394576 -0.848668
2005-05-26 07:22:59 51°20.492 2°39.865 20.439 0.077296 0.394576 -0.848668
2005-05-26 07:23:04 51°20.494 2°39.829 20.4629 0.077296 0.394582 -0.848668
2005-05-26 07:23:09 51°20.496 2°39.795 20.4409 0.077296 0.394582 -0.848668
2005-05-26 07:23:14 51°20.498 2°39.766 20.4686 0.077296 0.394582 -0.848668
2005-05-26 07:23:19 51°20.5 2°39.732 20.4532 0.077296 0.394576 -0.882377
2005-05-26 07:23:24 51°20.502 2°39.7 20.4241 0.077296 0.394582 -0.848668
2005-05-26 07:23:29 51°20.504 2°39.667 20.4767 0.077296 0.394588 -0.848668
2005-05-26 07:23:34 51°20.505 2°39.634 20.4396 0.077296 0.394588 -0.848668
2005-05-26 07:23:38 51°20.507 2°39.603 20.4613 0.077296 0.394588 -0.848668
2005-05-26 07:23:44 51°20.51 2°39.567 20.4436 0.077296 0.394588 -0.814958
2005-05-26 07:23:49 51°20.512 2°39.531 20.4861 0.077296 0.394588 -0.882377
2005-05-26 07:23:54 51°20.514 2°39.501 20.454 0.077296 0.394588 -0.848668
2005-05-26 07:23:59 51°20.517 2°39.465 20.4906 0.077296 0.394599 -0.848668
2005-05-26 07:24:04 51°20.518 2°39.435 20.429 0.077296 0.394599 -0.814958
2005-05-26 07:24:08 51°20.52 2°39.405 20.4901 0.077296 0.394599 -0.814958
2005-05-26 07:24:14 51°20.522 2°39.369 20.4442 0.077296 0.394593 -0.848668
2005-05-26 07:24:19 51°20.525 2°39.332 20.4717 0.077296 0.394599 -0.814958
2005-05-26 07:24:24 51°20.527 2°39.299 20.4499 0.077296 0.394599 -0.848668
2005-05-26 07:24:29 51°20.529 2°39.269 20.4882 0.077296 0.394599 -0.848668
2005-05-26 07:24:34 51°20.531 2°39.236 20.476 0.077296 0.394599 -0.848668
2005-05-26 07:24:38 51°20.533 2°39.206 20.4594 0.077296 0.394599 -0.848668
2005-05-26 07:24:44 51°20.536 2°39.169 20.489 0.077296 0.394605 -0.848668
2005-05-26 07:24:49 51°20.537 2°39.137 20.4861 0.077296 0.394605 -0.882377
2005-05-26 07:24:54 51°20.539 2°39.103 20.4518 0.077296 0.394611 -0.848668
2005-05-26 07:24:59 51°20.542 2°39.067 20.4792 0.077296 0.394611 -0.882377
2005-05-26 07:25:04 51°20.544 2°39.037 20.4824 0.077296 0.394611 -0.882377
2005-05-26 07:25:09 51°20.546 2°39.001 20.4848 0.077296 0.394611 -0.882377
2005-05-26 07:25:14 51°20.548 2°38.971 20.4759 0.077296 0.394611 -0.848668
2005-05-26 07:25:19 51°20.551 2°38.935 20.5042 0.077296 0.394616 -0.848668
2005-05-26 07:25:24 51°20.552 2°38.905 20.4619 0.077296 0.394622 -0.848668
2005-05-26 07:25:28 51°20.553 2°38.875 20.4886 0.077296 0.394628 -0.882377
2005-05-26 07:25:34 51°20.556 2°38.839 20.4534 0.077296 0.394616 -0.848668
2005-05-26 07:25:39 51°20.557 2°38.806 20.4903 0.077296 0.394616 -0.848668
2005-05-26 07:25:44 51°20.559 2°38.773 20.4816 0.077296 0.394622 -0.848668
2005-05-26 07:25:49 51°20.562 2°38.737 20.4761 0.077296 0.394622 -0.848668
2005-05-26 07:25:54 51°20.564 2°38.707 20.5098 0.077296 0.394622 -0.882377
2005-05-26 07:25:59 51°20.566 2°38.671 20.5 0.077296 0.394628 -0.848668
2005-05-26 07:26:04 51°20.568 2°38.641 20.491 0.077296 0.394628 -0.848668
2005-05-26 07:26:08 51°20.569 2°38.612 20.5097 0.077296 0.394628 -0.848668
2005-05-26 07:26:14 51°20.572 2°38.576 20.48 0.077296 0.39464 -0.814958
2005-05-26 07:26:19 51°20.574 2°38.543 20.4772 0.077296 0.394634 -0.882377
2005-05-26 07:26:24 51°20.575 2°38.51 20.5045 0.077296 0.39464 -0.848668
2005-05-26 07:26:28 51°20.577 2°38.48 20.4745 0.077296 0.394634 -0.882377
2005-05-26 07:26:34 51°20.579 2°38.444 20.488 0.077296 0.39464 -0.848668
2005-05-26 07:26:39 51°20.582 2°38.408 20.5067 0.077296 0.39464 -0.848668
2005-05-26 07:26:44 51°20.583 2°38.378 20.4897 0.077296 0.39464 -0.882377
2005-05-26 07:26:48 51°20.585 2°38.349 20.4877 0.077296 0.39464 -0.882377
2005-05-26 07:26:54 51°20.587 2°38.312 20.5058 0.077296 0.394645 -0.848668
2005-05-26 07:26:59 51°20.589 2°38.279 20.511 0.077296 0.39464 -0.848668
2005-05-26 07:27:04 51°20.591 2°38.247 20.5104 0.077296 0.394645 -0.848668
2005-05-26 07:27:09 51°20.593 2°38.214 20.4527 0.077296 0.394645 -0.848668
2005-05-26 07:27:14 51°20.594 2°38.181 20.5184 0.077296 0.394651 -0.882377
2005-05-26 07:27:19 51°20.596 2°38.145 20.4924 0.077296 0.394651 -0.882377
2005-05-26 07:27:24 51°20.598 2°38.115 20.5211 0.077296 0.394651 -0.882377
2005-05-26 07:27:29 51°20.599 2°38.082 20.5026 0.077296 0.394651 -0.848668
2005-05-26 07:27:34 51°20.601 2°38.05 20.5016 0.077296 0.394663 -0.848668
2005-05-26 07:27:39 51°20.603 2°38.013 20.5044 0.077296 0.394663 -0.848668
2005-05-26 07:27:44 51°20.605 2°37.984 20.5189 0.077296 0.394657 -0.848668
2005-05-26 07:27:49 51°20.607 2°37.951 20.5094 0.077296 0.394657 -0.882377
2005-05-26 07:27:54 51°20.608 2°37.919 20.5336 0.077296 0.394663 -0.848668
2005-05-26 07:27:59 51°20.61 2°37.883 20.4819 0.077296 0.394663 -0.882377
2005-05-26 07:28:04 51°20.611 2°37.853 20.5101 0.077296 0.394668 -0.848668
2005-05-26 07:28:08 51°20.613 2°37.824 20.5159 0.077296 0.394668 -0.848668
2005-05-26 07:28:14 51°20.615 2°37.788 20.5008 0.077296 0.394657 -0.882377
2005-05-26 07:28:18 51°20.617 2°37.758 20.5089 0.077296 0.394663 -0.882377
2005-05-26 07:28:24 51°20.619 2°37.722 20.5149 0.077296 0.394663 -0.882377
2005-05-26 07:28:29 51°20.621 2°37.686 20.4817 0.077296 0.394668 -0.848668
2005-05-26 07:28:34 51°20.622 2°37.656 20.529 0.077296 0.394668 -0.848668
2005-05-26 07:28:39 51°20.625 2°37.621 20.4999 0.077296 0.394668 -0.848668
2005-05-26 07:28:44 51°20.627 2°37.591 20.5009 0.077296 0.394668 -0.882377
2005-05-26 07:28:49 51°20.629 2°37.555 20.5207 0.077296 0.394674 -0.848668
2005-05-26 07:28:54 51°20.631 2°37.526 20.5014 0.077296 0.394674 -0.848668
2005-05-26 07:28:59 51°20.633 2°37.49 20.5486 0.077296 0.39468 -0.848668
2005-05-26 07:29:04 51°20.635 2°37.46 20.5023 0.077296 0.39468 -0.882377
2005-05-26 07:29:08 51°20.637 2°37.431 20.53 0.077296 0.39468 -0.882377
2005-05-26 07:29:14 51°20.639 2°37.395 20.503 0.077296 0.39468 -0.848668
2005-05-26 07:29:19 51°20.641 2°37.359 20.5376 0.077296 0.39468 -0.848668
2005-05-26 07:29:24 51°20.643 2°37.326 20.5151 0.077296 0.394686 -0.848668
2005-05-26 07:29:29 51°20.645 2°37.296 20.5377 0.077296 0.394686 -0.848668
2005-05-26 07:29:34 51°20.646 2°37.263 20.4989 0.077296 0.394686 -0.848668
2005-05-26 07:29:39 51°20.649 2°37.23 20.5251 0.077296 0.394686 -0.848668
2005-05-26 07:29:44 51°20.65 2°37.197 20.5398 0.077296 0.39468 -0.882377
2005-05-26 07:29:49 51°20.653 2°37.161 20.5271 0.077296 0.394686 -0.848668
2005-05-26 07:29:54 51°20.655 2°37.131 20.5496 0.077296 0.394692 -0.882377
2005-05-26 07:29:59 51°20.657 2°37.094 20.5343 0.077296 0.394692 -0.848668
2005-05-26 07:30:04 51°20.659 2°37.064 20.5428 0.077296 0.394697 -0.882377
2005-05-26 07:30:09 51°20.661 2°37.028 20.5226 0.077296 0.394697 -0.882377
2005-05-26 07:30:14 51°20.663 2°36.998 20.5363 0.077296 0.394697 -0.848668
2005-05-26 07:30:19 51°20.665 2°36.962 20.5393 0.077296 0.394697 -0.848668
2005-05-26 07:30:24 51°20.667 2°36.932 20.5578 0.077296 0.394703 -0.848668
2005-05-26 07:30:29 51°20.669 2°36.895 20.4865 0.077296 0.394703 -0.848668
2005-05-26 07:30:34 51°20.67 2°36.865 20.5423 0.077296 0.394703 -0.848668
2005-05-26 07:30:39 51°20.672 2°36.832 20.5335 0.077296 0.394703 -0.848668
2005-05-26 07:30:44 51°20.674 2°36.799 20.5393 0.077296 0.394703 -0.882377
2005-05-26 07:30:49 51°20.676 2°36.762 20.5272 0.077296 0.394709 -0.848668
2005-05-26 07:30:54 51°20.678 2°36.732 20.5593 0.077296 0.394709 -0.882377
2005-05-26 07:30:59 51°20.679 2°36.699 20.4952 0.077296 0.394703 -0.882377
2005-05-26 07:31:04 51°20.681 2°36.665 20.5508 0.077296 0.394715 -0.848668
2005-05-26 07:31:09 51°20.683 2°36.632 20.4889 0.077296 0.394715 -0.848668
2005-05-26 07:31:14 51°20.685 2°36.599 20.5583 0.077296 0.394715 -0.882377
2005-05-26 07:31:19 51°20.687 2°36.565 20.5068 0.077296 0.394709 -0.848668
2005-05-26 07:31:24 51°20.69 2°36.529 20.5418 0.077296 0.394715 -0.882377
2005-05-26 07:31:29 51°20.691 2°36.499 20.5506 0.077296 0.394715 -0.882377
2005-05-26 07:31:34 51°20.693 2°36.465 20.5144 0.077296 0.394715 -0.848668
2005-05-26 07:31:39 51°20.696 2°36.428 20.56 0.077296 0.394715 -0.848668
2005-05-26 07:31:44 51°20.698 2°36.398 20.5371 0.077296 0.394721 -0.848668
2005-05-26 07:31:49 51°20.699 2°36.365 20.55 0.077296 0.394732 -0.848668
2005-05-26 07:31:54 51°20.702 2°36.331 20.5115 0.077296 0.394726 -0.848668
2005-05-26 07:31:59 51°20.704 2°36.295 20.558 0.077296 0.394726 -0.882377
2005-05-26 07:32:04 51°20.706 2°36.264 20.5298 0.077296 0.394726 -0.848668
2005-05-26 07:32:08 51°20.707 2°36.234 20.5521 0.077296 0.394726 -0.848668
2005-05-26 07:32:13 51°20.709 2°36.201 20.5366 0.077296 0.394732 -0.848668
2005-05-26 07:32:19 51°20.712 2°36.16 20.5564 0.077296 0.394732 -0.848668
2005-05-26 07:32:24 51°20.714 2°36.13 20.5412 0.077296 0.394726 -0.848668
2005-05-26 07:32:29 51°20.715 2°36.096 20.5401 0.077296 0.394732 -0.848668
2005-05-26 07:32:34 51°20.718 2°36.063 20.5671 0.077296 0.394732 -0.882377
2005-05-26 07:32:39 51°20.72 2°36.026 20.531 0.077296 0.394732 -0.882377
2005-05-26 07:32:44 51°20.721 2°35.995 20.5305 0.077296 0.394738 -0.848668
2005-05-26 07:32:49 51°20.723 2°35.961 20.5452 0.077296 0.394738 -0.882377
2005-05-26 07:32:54 51°20.725 2°35.928 20.5542 0.077296 0.394738 -0.848668
2005-05-26 07:32:59 51°20.727 2°35.894 20.5585 0.077296 0.394738 -0.848668
2005-05-26 07:33:04 51°20.73 2°35.861 20.5676 0.077296 0.39475 -0.848668
2005-05-26 07:33:09 51°20.731 2°35.824 20.565 0.077296 0.39475 -0.848668
2005-05-26 07:33:14 51°20.733 2°35.793 20.5516 0.077296 0.39475 -0.814958
2005-05-26 07:33:19 51°20.735 2°35.757 20.539 0.077296 0.394755 -0.848668
2005-05-26 07:33:24 51°20.736 2°35.727 20.5638 0.077296 0.39475 -0.848668
2005-05-26 07:33:29 51°20.738 2°35.693 20.5704 0.077296 0.394755 -0.848668
2005-05-26 07:33:34 51°20.74 2°35.66 20.5773 0.077296 0.39475 -0.848668
2005-05-26 07:33:39 51°20.742 2°35.623 20.5573 0.077296 0.39475 -0.848668
2005-05-26 07:33:44 51°20.744 2°35.593 20.5633 0.077296 0.394755 -0.882377
2005-05-26 07:33:48 51°20.745 2°35.563 20.5252 0.077296 0.394755 -0.882377
2005-05-26 07:33:54 51°20.747 2°35.526 20.5846 0.077296 0.394761 -0.882377
2005-05-26 07:33:59 51°20.749 2°35.489 20.5459 0.077296 0.394755 -0.814958
2005-05-26 07:34:04 51°20.75 2°35.459 20.588 0.077296 0.394767 -0.848668
2005-05-26 07:34:09 51°20.752 2°35.426 20.5615 0.077296 0.394767 -0.848668
2005-05-26 07:34:14 51°20.754 2°35.393 20.5547 0.077296 0.394767 -0.848668
2005-05-26 07:34:19 51°20.756 2°35.356 20.58 0.077296 0.394767 -0.848668
2005-05-26 07:34:24 51°20.758 2°35.326 20.5584 0.077296 0.394767 -0.848668
2005-05-26 07:34:29 51°20.759 2°35.293 20.5617 0.077296 0.394767 -0.882377
2005-05-26 07:34:34 51°20.761 2°35.259 20.5506 0.077296 0.394773 -0.848668
2005-05-26 07:34:39 51°20.763 2°35.225 20.5667 0.077296 0.394773 -0.848668
2005-05-26 07:34:44 51°20.765 2°35.193 20.5929 0.077296 0.394767 -0.848668
2005-05-26 07:34:48 51°20.766 2°35.162 20.5608 0.077296 0.394778 -0.814958
2005-05-26 07:34:54 51°20.769 2°35.125 20.5949 0.077296 0.394778 -0.882377
2005-05-26 07:34:58 51°20.77 2°35.095 20.5435 0.077296 0.394778 -0.882377
2005-05-26 07:35:04 51°20.772 2°35.058 20.5912 0.077296 0.394778 -0.882377
2005-05-26 07:35:09 51°20.774 2°35.025 20.582 0.077296 0.394778 -0.882377
2005-05-26 07:35:14 51°20.776 2°34.991 20.5877 0.077296 0.394778 -0.814958
2005-05-26 07:35:19 51°20.777 2°34.958 20.5625 0.077296 0.394784 -0.848668
2005-05-26 07:35:24 51°20.779 2°34.925 20.5695 0.077296 0.394784 -0.848668
2005-05-26 07:35:29 51°20.781 2°34.891 20.5681 0.077296 0.39479 -0.848668
2005-05-26 07:35:34 51°20.783 2°34.858 20.5923 0.077296 0.394784 -0.848668
2005-05-26 07:35:39 51°20.785 2°34.821 20.602 0.077296 0.394784 -0.848668
2005-05-26 07:35:44 51°20.786 2°34.791 20.6059 0.077296 0.39479 -0.848668
2005-05-26 07:35:49 51°20.788 2°34.758 20.5902 0.077296 0.39479 -0.848668
2005-05-26 07:35:54 51°20.79 2°34.724 20.4988 0.077296 0.394796 -0.848668
2005-05-26 07:35:59 51°20.792 2°34.691 20.4764 0.077296 0.394802 -0.848668
2005-05-26 07:36:04 51°20.797 2°34.659 20.5211 0.077296 0.394784 -0.848668
2005-05-26 07:36:09 51°20.803 2°34.627 20.4542 0.077296 0.394784 -0.848668
2005-05-26 07:36:14 51°20.81 2°34.598 20.567 0.077296 0.394796 -0.848668
2005-05-26 07:36:19 51°20.819 2°34.565 20.5648 0.077296 0.39479 -0.848668
2005-05-26 07:36:24 51°20.827 2°34.539 20.5745 0.077296 0.394796 -0.882377
2005-05-26 07:36:29 51°20.837 2°34.509 20.5506 0.077296 0.394802 -0.848668
2005-05-26 07:36:34 51°20.847 2°34.481 20.5902 0.077296 0.394807 -0.848668
2005-05-26 07:36:39 51°20.856 2°34.452 20.5671 0.077296 0.394807 -0.848668
2005-05-26 07:36:44 51°20.866 2°34.425 20.5851 0.077296 0.394807 -0.848668
2005-05-26 07:36:48 51°20.875 2°34.399 20.5621 0.077296 0.394813 -0.848668
2005-05-26 07:36:54 51°20.887 2°34.368 20.5845 0.077296 0.394819 -0.848668
2005-05-26 07:36:58 51°20.896 2°34.343 20.5712 0.077296 0.394825 -0.882377
2005-05-26 07:37:04 51°20.908 2°34.313 20.5001 0.077296 0.394825 -0.848668
2005-05-26 07:37:09 51°20.919 2°34.285 20.5332 0.077296 0.394825 -0.848668
2005-05-26 07:37:14 51°20.931 2°34.26 20.5341 0.077296 0.394836 -0.848668
2005-05-26 07:37:18 51°20.943 2°34.238 20.5382 0.077296 0.394819 -0.848668
2005-05-26 07:37:24 51°20.958 2°34.212 20.5808 0.077296 0.394825 -0.882377
2005-05-26 07:37:29 51°20.971 2°34.189 20.5662 0.077296 0.394819 -0.848668
2005-05-26 07:37:34 51°20.985 2°34.166 20.5831 0.077296 0.394825 -0.848668
2005-05-26 07:37:39 51°21.001 2°34.142 20.5703 0.077296 0.394825 -0.848668
2005-05-26 07:37:44 51°21.014 2°34.122 20.5677 0.077296 0.394825 -0.882377
2005-05-26 07:37:49 51°21.029 2°34.1 20.5517 0.077296 0.394825 -0.882377
2005-05-26 07:37:54 51°21.044 2°34.08 20.5826 0.077296 0.394831 -0.848668
2005-05-26 07:37:59 51°21.061 2°34.058 20.543 0.077296 0.394831 -0.848668
2005-05-26 07:38:04 51°21.075 2°34.04 20.5875 0.077296 0.394825 -0.848668
2005-05-26 07:38:08 51°21.089 2°34.023 20.5894 0.077296 0.394825 -0.848668
2005-05-26 07:38:14 51°21.107 2°34.003 20.6095 0.077296 0.394836 -0.814958
2005-05-26 07:38:19 51°21.125 2°33.983 20.61 0.077296 0.394842 -0.848668
2005-05-26 07:38:24 51°21.14 2°33.967 20.5884 0.077296 0.394842 -0.848668
2005-05-26 07:38:29 51°21.156 2°33.95 20.5856 0.077296 0.394842 -0.848668
2005-05-26 07:38:34 51°21.173 2°33.932 20.6003 0.077296 0.394842 -0.848668
2005-05-26 07:38:39 51°21.191 2°33.913 20.6111 0.077296 0.394842 -0.848668
2005-05-26 07:38:44 51°21.206 2°33.897 20.6041 0.077296 0.394836 -0.848668
2005-05-26 07:38:49 51°21.222 2°33.88 20.6 0.077296 0.394831 -0.848668
2005-05-26 07:38:54 51°21.239 2°33.862 20.587 0.077296 0.394836 -0.848668
2005-05-26 07:38:59 51°21.255 2°33.845 20.5915 0.077296 0.394842 -0.848668
2005-05-26 07:39:04 51°21.272 2°33.827 20.5907 0.077296 0.394842 -0.882377
2005-05-26 07:39:08 51°21.286 2°33.812 20.5988 0.077296 0.394842 -0.882377
2005-05-26 07:39:14 51°21.305 2°33.793 20.5218 0.077296 0.394848 -0.848668
2005-05-26 07:39:18 51°21.321 2°33.779 20.5896 0.077296 0.39486 -0.848668
2005-05-26 07:39:24 51°21.342 2°33.763 20.5757 0.077296 0.394848 -0.848668
2005-05-26 07:39:29 51°21.358 2°33.751 20.6022 0.077296 0.394854 -0.882377
2005-05-26 07:39:34 51°21.376 2°33.739 20.5863 0.077296 0.394854 -0.848668
2005-05-26 07:39:39 51°21.393 2°33.727 20.6121 0.077296 0.394854 -0.848668
2005-05-26 07:39:44 51°21.412 2°33.715 20.6233 0.077296 0.394854 -0.882377
2005-05-26 07:39:49 51°21.431 2°33.703 20.6151 0.077296 0.394854 -0.848668
2005-05-26 07:39:54 51°21.448 2°33.693 20.6174 0.077296 0.394854 -0.848668
2005-05-26 07:39:59 51°21.465 2°33.681 20.6083 0.077296 0.39486 -0.814958
2005-05-26 07:40:04 51°21.484 2°33.669 20.6078 0.077296 0.394865 -0.848668
2005-05-26 07:40:09 51°21.502 2°33.657 20.6064 0.077296 0.394865 -0.848668
2005-05-26 07:40:14 51°21.52 2°33.645 20.5972 0.077296 0.394871 -0.814958
2005-05-26 07:40:19 51°21.54 2°33.633 20.6154 0.077296 0.394871 -0.848668
2005-05-26 07:40:24 51°21.557 2°33.623 20.6162 0.077296 0.394877 -0.848668
2005-05-26 07:40:29 51°21.576 2°33.609 20.6263 0.077296 0.394877 -0.882377
2005-05-26 07:40:34 51°21.593 2°33.599 20.624 0.077296 0.394877 -0.848668
2005-05-26 07:40:39 51°21.613 2°33.586 20.6252 0.077296 0.394877 -0.848668
2005-05-26 07:40:44 51°21.629 2°33.575 20.6182 0.077296 0.394877 -0.882377
2005-05-26 07:40:48 51°21.646 2°33.565 20.6375 0.077296 0.394877 -0.848668
2005-05-26 07:40:54 51°21.666 2°33.552 20.6366 0.077296 0.394871 -0.814958
2005-05-26 07:40:59 51°21.684 2°33.541 20.6289 0.077296 0.394877 -0.848668
2005-05-26 07:41:04 51°21.705 2°33.529 20.6149 0.077296 0.394883 -0.848668
2005-05-26 07:41:08 51°21.72 2°33.52 20.5918 0.077296 0.394883 -0.848668
2005-05-26 07:41:14 51°21.74 2°33.506 20.6194 0.077296 0.394883 -0.814958
2005-05-26 07:41:19 51°21.76 2°33.494 20.6203 0.077296 0.394883 -0.814958
2005-05-26 07:41:24 51°21.776 2°33.483 20.6459 0.077296 0.394888 -0.814958
2005-05-26 07:41:28 51°21.793 2°33.473 20.6416 0.077296 0.394888 -0.882377
2005-05-26 07:41:34 51°21.813 2°33.461 20.6285 0.077296 0.394888 -0.882377
2005-05-26 07:41:39 51°21.833 2°33.447 20.598 0.077296 0.394888 -0.882377
2005-05-26 07:41:44 51°21.85 2°33.436 20.6438 0.077296 0.394894 -0.848668
2005-05-26 07:41:49 51°21.867 2°33.423 20.6281 0.077296 0.394894 -0.882377
2005-05-26 07:41:54 51°21.885 2°33.411 20.6208 0.077296 0.394888 -0.848668
2005-05-26 07:41:59 51°21.904 2°33.399 20.6163 0.077296 0.394888 -0.848668
2005-05-26 07:42:04 51°21.922 2°33.388 20.6497 0.077296 0.394888 -0.814958
2005-05-26 07:42:09 51°21.942 2°33.375 20.6584 0.077296 0.394888 -0.814958
2005-05-26 07:42:14 51°21.959 2°33.364 20.6196 0.077296 0.3949 -0.848668
2005-05-26 07:42:19 51°21.979 2°33.35 20.6437 0.077296 0.3949 -0.848668
2005-05-26 07:42:24 51°21.995 2°33.339 20.6421 0.077296 0.394894 -0.848668
2005-05-26 07:42:29 51°22.014 2°33.326 20.6876 0.077296 0.3949 -0.848668
2005-05-26 07:42:34 51°22.031 2°33.313 20.6079 0.077296 0.394906 -0.882377
2005-05-26 07:42:39 51°22.051 2°33.297 20.6688 0.077296 0.394906 -0.882377
2005-05-26 07:42:44 51°22.067 2°33.283 20.6292 0.077296 0.394912 -0.848668
2005-05-26 07:42:49 51°22.084 2°33.268 20.6572 0.077296 0.394917 -0.848668
2005-05-26 07:42:53 51°22.098 2°33.256 20.6018 0.077296 0.394912 -0.848668
2005-05-26 07:42:59 51°22.119 2°33.236 20.6546 0.077296 0.394912 -0.848668
2005-05-26 07:43:04 51°22.137 2°33.22 20.6536 0.077296 0.394912 -0.848668
2005-05-26 07:43:09 51°22.156 2°33.202 20.6437 0.077296 0.394912 -0.848668
2005-05-26 07:43:12 51°22.166 2°33.192 20.6488 0.077296 0.394906 -0.848668
2005-05-26 07:43:19 51°22.191 2°33.169 20.6661 0.077296 0.394912 -0.848668
2005-05-26 07:43:24 51°22.206 2°33.154 20.6862 0.077296 0.394912 -0.848668
2005-05-26 07:43:28 51°22.221 2°33.137 20.6325 0.077296 0.394923 -0.882377
2005-05-26 07:43:34 51°22.238 2°33.115 20.6983 0.077296 0.394929 -0.882377
2005-05-26 07:43:38 51°22.252 2°33.095 20.6576 0.077296 0.394929 -0.882377
2005-05-26 07:43:44 51°22.267 2°33.069 20.6267 0.077296 0.394946 -0.848668
2005-05-26 07:43:49 51°22.281 2°33.045 20.6666 0.077296 0.394941 -0.814958
2005-05-26 07:43:54 51°22.295 2°33.021 20.6365 0.077296 0.394935 -0.882377
2005-05-26 07:43:59 51°22.31 2°32.994 20.6413 0.077296 0.394935 -0.848668
2005-05-26 07:44:04 51°22.321 2°32.971 20.6467 0.077296 0.394929 -0.848668